Observation data for Fort Lewis CO on 12/08/2019      Previous  Date       Current Mesonet Observations  Soil Data  Daily Summary Page  Observations in Plain Language
KFL1 080600Z 05004KT 03/M01 A302 RMK A01 T00291014  RH  074%=      5-min Rain = 0
KFL1 080601Z 05004KT 03/M01 A302 RMK A01 T00291013  RH  073%=      5-min Rain = 0
KFL1 080602Z 05004KT 03/M01 A302 RMK A01 T00301012  RH  074%=      5-min Rain = 0
KFL1 080603Z 06004KT 03/M01 A302 RMK A01 T00301012  RH  074%=      5-min Rain = 0
KFL1 080604Z 05004KT 03/M01 A302 RMK A01 T00291014  RH  074%=      5-min Rain = 0
KFL1 080605Z 05004KT 03/M01 A302 RMK A01 T00301012  RH  074%=      5-min Rain = 0
KFL1 080606Z 05004KT 03/M01 A302 RMK A01 T00291012  RH  074%=      5-min Rain = 0
KFL1 080607Z 05004KT 03/M01 A302 RMK A01 T00291012  RH  074%=      5-min Rain = 0
KFL1 080608Z 05004KT 03/M01 A302 RMK A01 T00281012  RH  075%=      5-min Rain = 0
KFL1 080609Z 05004KT 03/M01 A302 RMK A01 T00281013  RH  075%=      5-min Rain = 0
KFL1 080610Z 05004KT 03/M01 A302 RMK A01 T00291011  RH  075%=      5-min Rain = 0
KFL1 080611Z 05003KT 03/M01 A302 RMK A01 T00291011  RH  075%=      5-min Rain = 0
KFL1 080612Z 04004KT 03/M01 A302 RMK A01 T00281012  RH  075%=      5-min Rain = 0
KFL1 080613Z 05004KT 03/M01 A302 RMK A01 T00281013  RH  075%=      5-min Rain = 0
KFL1 080614Z 05004KT 03/M01 A302 RMK A01 T00281012  RH  075%=      5-min Rain = 0
KFL1 080615Z 05004KT 03/M01 A302 RMK A01 T00281012  RH  075%=      5-min Rain = 0
KFL1 080616Z 05004KT 03/M01 A302 RMK A01 T00281012  RH  075%=      5-min Rain = 0
KFL1 080617Z 05004KT 03/M01 A302 RMK A01 T00291012  RH  075%=      5-min Rain = 0
KFL1 080618Z 05004KT 03/M01 A302 RMK A01 T00281013  RH  074%=      5-min Rain = 0
KFL1 080619Z 06004KT 03/M01 A3019 RMK A01 T00291011  RH  075%=      5-min Rain = 0
KFL1 080620Z 06004KT 03/M01 A3019 RMK A01 T00291011  RH  075%=      5-min Rain = 0
KFL1 080621Z 06004KT 03/M01 A3019 RMK A01 T00281011  RH  075%=      5-min Rain = 0
KFL1 080622Z 06004KT 03/M01 A3019 RMK A01 T00271011  RH  076%=      5-min Rain = 0
KFL1 080623Z 06004KT 03/M01 A3019 RMK A01 T00271010  RH  076%=      5-min Rain = 0
KFL1 080624Z 05004KT 03/M01 A3019 RMK A01 T00271010  RH  077%=      5-min Rain = 0
KFL1 080625Z 06004KT 03/M01 A3019 RMK A01 T00261010  RH  077%=      5-min Rain = 0
KFL1 080626Z 06005KT 03/M01 A3019 RMK A01 T00261010  RH  077%=      5-min Rain = 0
KFL1 080627Z 06004KT 03/M01 A3019 RMK A01 T00261010  RH  077%=      5-min Rain = 0
KFL1 080628Z 05003KT 03/M01 A3019 RMK A01 T00261010  RH  077%=      5-min Rain = 0
KFL1 080629Z 04004KT 03/M01 A3019 RMK A01 T00261010  RH  077%=      5-min Rain = 0
KFL1 080630Z 04005KT 03/M01 A3019 RMK A01 T00261009  RH  077%=      5-min Rain = 0
KFL1 080631Z 04005KT 03/M01 A3019 RMK A01 T00261011  RH  077%=      5-min Rain = 0
KFL1 080632Z 04005KT 03/M01 A3019 RMK A01 T00261010  RH  077%=      5-min Rain = 0
KFL1 080633Z 04005KT 03/M01 A3019 RMK A01 T00251011  RH  077%=      5-min Rain = 0
KFL1 080634Z 05005KT 03/M01 A3019 RMK A01 T00261011  RH  076%=      5-min Rain = 0
KFL1 080635Z 05006KT 03/M01 A3019 RMK A01 T00261012  RH  076%=      5-min Rain = 0
KFL1 080636Z 06005KT 03/M01 A3018 RMK A01 T00261011  RH  076%=      5-min Rain = 0
KFL1 080637Z 06004KT 03/M01 A3018 RMK A01 T00271010  RH  077%=      5-min Rain = 0
KFL1 080638Z 06005KT 03/M01 A3018 RMK A01 T00261010  RH  077%=      5-min Rain = 0
KFL1 080639Z 06005KT 03/M01 A3018 RMK A01 T00271010  RH  077%=      5-min Rain = 0
KFL1 080640Z 06004KT 03/M01 A3018 RMK A01 T00261009  RH  077%=      5-min Rain = 0
KFL1 080641Z 06005KT 03/M01 A3018 RMK A01 T00261009  RH  078%=      5-min Rain = 0
KFL1 080642Z 05004KT 03/M01 A3018 RMK A01 T00251010  RH  078%=      5-min Rain = 0
KFL1 080643Z 05004KT 03/M01 A3018 RMK A01 T00251010  RH  077%=      5-min Rain = 0
KFL1 080644Z 05005KT 03/M01 A3018 RMK A01 T00251011  RH  077%=      5-min Rain = 0
KFL1 080645Z 05005KT 03/M01 A3018 RMK A01 T00261010  RH  077%=      5-min Rain = 0
KFL1 080646Z 05005KT 03/M01 A3018 RMK A01 T00261010  RH  077%=      5-min Rain = 0
KFL1 080647Z 06004KT 03/M01 A3018 RMK A01 T00261010  RH  077%=      5-min Rain = 0
KFL1 080648Z 04004KT 03/M01 A3018 RMK A01 T00261011  RH  077%=      5-min Rain = 0
KFL1 080649Z 04004KT 03/M01 A3018 RMK A01 T00261010  RH  077%=      5-min Rain = 0
KFL1 080650Z 04003KT 03/M01 A3018 RMK A01 T00261009  RH  078%=      5-min Rain = 0
KFL1 080651Z 03004KT 03/M01 A3018 RMK A01 T00261008  RH  078%=      5-min Rain = 0
KFL1 080652Z 03004KT 03/M01 A3018 RMK A01 T00261007  RH  079%=      5-min Rain = 0
KFL1 080653Z 03004KT 03/M01 A3018 RMK A01 T00251007  RH  079%=      5-min Rain = 0
KFL1 080654Z 03004KT 03/M01 A3018 RMK A01 T00261006  RH  079%=      5-min Rain = 0
KFL1 080655Z 04004KT 03/M01 A3018 RMK A01 T00251007  RH  080%=      5-min Rain = 0
KFL1 080656Z 04004KT 03/M01 A3018 RMK A01 T00251006  RH  080%=      5-min Rain = 0
KFL1 080657Z 05004KT 03/M01 A3018 RMK A01 T00251005  RH  081%=      5-min Rain = 0
KFL1 080658Z 05004KT 03/M00 A3018 RMK A01 T00251004  RH  081%=      5-min Rain = 0
KFL1 080659Z 05006KT 02/M00 A3018 RMK A01 T00241004  RH  082%=      5-min Rain = 0
KFL1 080700Z 05005KT 02/M00 A3017 RMK A01 T00231004  RH  082%=      5-min Rain = 0
KFL1 080701Z 05005KT 02/M00 A3017 RMK A01 T00231004  RH  082%=      5-min Rain = 0
KFL1 080702Z 04004KT 02/M01 A3017 RMK A01 T00231006  RH  081%=      5-min Rain = 0
KFL1 080703Z 05005KT 02/M01 A3017 RMK A01 T00231006  RH  081%=      5-min Rain = 0
KFL1 080704Z 05003KT 02/M01 A3017 RMK A01 T00241005  RH  081%=      5-min Rain = 0
KFL1 080705Z 05003KT 02/M01 A3017 RMK A01 T00241005  RH  081%=      5-min Rain = 0
KFL1 080706Z 05004KT 02/M00 A3017 RMK A01 T00241004  RH  081%=      5-min Rain = 0
KFL1 080707Z 05004KT 02/M00 A3017 RMK A01 T00241004  RH  082%=      5-min Rain = 0
KFL1 080708Z 05005KT 03/M00 A3017 RMK A01 T00251003  RH  082%=      5-min Rain = 0
KFL1 080709Z 05004KT 02/M00 A3017 RMK A01 T00241004  RH  082%=      5-min Rain = 0
KFL1 080710Z 05005KT 02/M00 A3017 RMK A01 T00241003  RH  082%=      5-min Rain = 0
KFL1 080711Z 05005KT 02/M01 A3017 RMK A01 T00231005  RH  082%=      5-min Rain = 0
KFL1 080712Z 05004KT 02/M00 A3017 RMK A01 T00241003  RH  082%=      5-min Rain = 0
KFL1 080713Z 06004KT 02/M01 A3017 RMK A01 T00231005  RH  082%=      5-min Rain = 0
KFL1 080714Z 05004KT 02/M01 A3017 RMK A01 T00231005  RH  082%=      5-min Rain = 0
KFL1 080715Z 04004KT 02/M01 A3017 RMK A01 T00221005  RH  082%=      5-min Rain = 0
KFL1 080716Z 05003KT 02/M01 A3017 RMK A01 T00221005  RH  082%=      5-min Rain = 0
KFL1 080717Z 05004KT 02/M00 A3017 RMK A01 T00231004  RH  082%=      5-min Rain = 0
KFL1 080718Z 05004KT 02/M00 A3017 RMK A01 T00231003  RH  083%=      5-min Rain = 0
KFL1 080719Z 05005KT 02/M00 A3017 RMK A01 T00231003  RH  083%=      5-min Rain = 0
KFL1 080720Z 05004KT 02/M00 A3017 RMK A01 T00221004  RH  083%=      5-min Rain = 0
KFL1 080721Z 06004KT 02/M00 A3017 RMK A01 T00221003  RH  083%=      5-min Rain = 0
KFL1 080722Z 06004KT 02/M00 A3017 RMK A01 T00211004  RH  084%=      5-min Rain = 0
KFL1 080723Z 06004KT 02/M00 A3017 RMK A01 T00211004  RH  084%=      5-min Rain = 0
KFL1 080724Z 06004KT 02/M00 A3017 RMK A01 T00211003  RH  084%=      5-min Rain = 0
KFL1 080725Z 06003KT 02/M00 A3017 RMK A01 T00211003  RH  084%=      5-min Rain = 0
KFL1 080726Z 06004KT 02/M00 A3017 RMK A01 T00211003  RH  084%=      5-min Rain = 0
KFL1 080727Z 06004KT 02/M00 A3017 RMK A01 T00211002  RH  084%=      5-min Rain = 0
KFL1 080728Z 05004KT 02/M00 A3017 RMK A01 T00201004  RH  084%=      5-min Rain = 0
KFL1 080729Z 06003KT 02/M00 A3016 RMK A01 T00221003  RH  084%=      5-min Rain = 0
KFL1 080730Z 06004KT 02/M00 A3016 RMK A01 T00211003  RH  084%=      5-min Rain = 0
KFL1 080731Z 06005KT 02/M00 A3016 RMK A01 T00211003  RH  084%=      5-min Rain = 0
KFL1 080732Z 07005KT 02/M00 A3016 RMK A01 T00211003  RH  084%=      5-min Rain = 0
KFL1 080733Z 07005KT 02/M00 A3016 RMK A01 T00211002  RH  084%=      5-min Rain = 0
KFL1 080734Z 07004KT 02/M00 A3016 RMK A01 T00211002  RH  084%=      5-min Rain = 0
KFL1 080735Z 06004KT 02/M00 A3016 RMK A01 T00201003  RH  085%=      5-min Rain = 0
KFL1 080736Z 06004KT 02/M00 A3016 RMK A01 T00211002  RH  085%=      5-min Rain = 0
KFL1 080737Z 06003KT 02/M00 A3016 RMK A01 T00201002  RH  085%=      5-min Rain = 0
KFL1 080738Z 07003KT 02/M00 A3016 RMK A01 T00211001  RH  085%=      5-min Rain = 0
KFL1 080739Z 06003KT 02/M00 A3016 RMK A01 T00201003  RH  085%=      5-min Rain = 0
KFL1 080740Z 06003KT 02/M00 A3016 RMK A01 T00211003  RH  084%=      5-min Rain = 0
KFL1 080741Z 05003KT 02/M00 A3016 RMK A01 T00201004  RH  084%=      5-min Rain = 0
KFL1 080742Z 06004KT 02/M00 A3016 RMK A01 T00211003  RH  084%=      5-min Rain = 0
KFL1 080743Z 06003KT 02/M00 A3016 RMK A01 T00211003  RH  084%=      5-min Rain = 0
KFL1 080744Z 06003KT 02/M00 A3015 RMK A01 T00221003  RH  084%=      5-min Rain = 0
KFL1 080745Z 05003KT 02/M00 A3015 RMK A01 T00211004  RH  084%=      5-min Rain = 0
KFL1 080746Z 04004KT 02/M00 A3015 RMK A01 T00221003  RH  084%=      5-min Rain = 0
KFL1 080747Z 04003KT 02/M00 A3015 RMK A01 T00211004  RH  084%=      5-min Rain = 0
KFL1 080748Z 04004KT 02/M00 A3015 RMK A01 T00211004  RH  083%=      5-min Rain = 0
KFL1 080749Z 04004KT 02/M00 A3015 RMK A01 T00221003  RH  083%=      5-min Rain = 0
KFL1 080750Z 04005KT 02/M00 A3015 RMK A01 T00211004  RH  083%=      5-min Rain = 0
KFL1 080751Z 03005KT 02/M00 A3015 RMK A01 T00211004  RH  083%=      5-min Rain = 0
KFL1 080752Z 03006KT 02/M00 A3015 RMK A01 T00221004  RH  083%=      5-min Rain = 0
KFL1 080753Z 03006KT 02/M01 A3015 RMK A01 T00211006  RH  083%=      5-min Rain = 0
KFL1 080754Z 03006KT 02/M00 A3015 RMK A01 T00231003  RH  083%=      5-min Rain = 0
KFL1 080755Z 03005KT 02/M01 A3015 RMK A01 T00221005  RH  082%=      5-min Rain = 0
KFL1 080756Z 04004KT 02/M01 A3015 RMK A01 T00221006  RH  082%=      5-min Rain = 0
KFL1 080757Z 04005KT 02/M01 A3015 RMK A01 T00231005  RH  082%=      5-min Rain = 0
KFL1 080758Z 04006KT 02/M01 A3015 RMK A01 T00231005  RH  082%=      5-min Rain = 0
KFL1 080759Z 05005KT 02/M00 A3015 RMK A01 T00231004  RH  082%=      5-min Rain = 0
KFL1 080800Z 05005KT 02/M00 A3015 RMK A01 T00231004  RH  082%=      5-min Rain = 0
KFL1 080801Z 04004KT 02/M00 A3015 RMK A01 T00231004  RH  082%=      5-min Rain = 0
KFL1 080802Z 06004KT 02/M00 A3015 RMK A01 T00221004  RH  082%=      5-min Rain = 0
KFL1 080803Z 05004KT 02/M00 A3015 RMK A01 T00241003  RH  083%=      5-min Rain = 0
KFL1 080804Z 05005KT 02/M00 A3015 RMK A01 T00221004  RH  083%=      5-min Rain = 0
KFL1 080805Z 06004KT 02/M00 A3015 RMK A01 T00221004  RH  083%=      5-min Rain = 0
KFL1 080806Z 05004KT 02/M00 A3015 RMK A01 T00221004  RH  083%=      5-min Rain = 0
KFL1 080807Z 05005KT 02/M00 A3015 RMK A01 T00221004  RH  083%=      5-min Rain = 0
KFL1 080808Z 05004KT 02/M00 A3015 RMK A01 T00221004  RH  083%=      5-min Rain = 0
KFL1 080809Z 06005KT 02/M01 A3015 RMK A01 T00211005  RH  083%=      5-min Rain = 0
KFL1 080810Z 06005KT 02/M00 A3015 RMK A01 T00221004  RH  083%=      5-min Rain = 0
KFL1 080811Z 06004KT 02/M00 A3015 RMK A01 T00211004  RH  083%=      5-min Rain = 0
KFL1 080812Z 05003KT 02/M00 A3015 RMK A01 T00221004  RH  083%=      5-min Rain = 0
KFL1 080813Z 06004KT 02/M01 A3015 RMK A01 T00211005  RH  083%=      5-min Rain = 0
KFL1 080814Z 06005KT 02/M01 A3015 RMK A01 T00211005  RH  083%=      5-min Rain = 0
KFL1 080815Z 05003KT 02/M00 A3015 RMK A01 T00211004  RH  083%=      5-min Rain = 0
KFL1 080816Z 04002KT 02/M00 A3015 RMK A01 T00221003  RH  083%=      5-min Rain = 0
KFL1 080817Z 02003KT 02/M00 A3015 RMK A01 T00221004  RH  083%=      5-min Rain = 0
KFL1 080818Z 02003KT 02/M00 A3015 RMK A01 T00221003  RH  083%=      5-min Rain = 0
KFL1 080819Z 03004KT 02/M00 A3015 RMK A01 T00211004  RH  084%=      5-min Rain = 0
KFL1 080820Z 05004KT 02/M00 A3015 RMK A01 T00211004  RH  084%=      5-min Rain = 0
KFL1 080821Z 06005KT 02/M00 A3014 RMK A01 T00211004  RH  084%=      5-min Rain = 0
KFL1 080822Z 07005KT 02/M00 A3014 RMK A01 T00201004  RH  084%=      5-min Rain = 0
KFL1 080823Z 06006KT 02/M00 A3014 RMK A01 T00201002  RH  085%=      5-min Rain = 0
KFL1 080824Z 06005KT 02/M00 A3014 RMK A01 T00191002  RH  086%=      5-min Rain = 0
KFL1 080825Z 06005KT 02/M00 A3014 RMK A01 T00181001  RH  087%=      5-min Rain = 0
KFL1 080826Z 05005KT 02/00 A3014 RMK A01 T00170000  RH  088%=      5-min Rain = 0
KFL1 080827Z 06004KT 02/00 A3014 RMK A01 T00170001  RH  089%=      5-min Rain = 0
KFL1 080828Z 06004KT 02/00 A3014 RMK A01 T00160001  RH  090%=      5-min Rain = 0
KFL1 080829Z 06004KT 02/00 A3014 RMK A01 T00160002  RH  090%=      5-min Rain = 0
KFL1 080830Z 06005KT 02/00 A3014 RMK A01 T00160002  RH  091%=      5-min Rain = 0
KFL1 080831Z 07005KT 02/00 A3014 RMK A01 T00150003  RH  091%=      5-min Rain = 0
KFL1 080832Z 06004KT 02/00 A3014 RMK A01 T00150003  RH  092%=      5-min Rain = 0
KFL1 080833Z 05006KT 02/00 A3014 RMK A01 T00150003  RH  092%=      5-min Rain = 0
KFL1 080834Z 04006KT 02/00 A3014 RMK A01 T00150004  RH  092%=      5-min Rain = 0
KFL1 080835Z 05006KT 02/00 A3014 RMK A01 T00150004  RH  092%=      5-min Rain = 0
KFL1 080836Z 05007KT 02/00 A3014 RMK A01 T00150003  RH  092%=      5-min Rain = 0
KFL1 080837Z 05007KT 01/00 A3014 RMK A01 T00140003  RH  092%=      5-min Rain = 0
KFL1 080838Z 05006KT 01/00 A3014 RMK A01 T00140003  RH  093%=      5-min Rain = 0
KFL1 080839Z 05005KT 02/00 A3014 RMK A01 T00150004  RH  093%=      5-min Rain = 0
KFL1 080840Z 05006KT 01/00 A3014 RMK A01 T00140004  RH  093%=      5-min Rain = 0
KFL1 080841Z 05007KT 01/00 A3014 RMK A01 T00130003  RH  093%=      5-min Rain = 0
KFL1 080842Z 05007KT 01/00 A3014 RMK A01 T00140004  RH  093%=      5-min Rain = 0
KFL1 080843Z 04005KT 01/00 A3014 RMK A01 T00140004  RH  093%=      5-min Rain = 0
KFL1 080844Z 03005KT 01/00 A3014 RMK A01 T00130003  RH  093%=      5-min Rain = 0
KFL1 080845Z 03006KT 01/00 A3014 RMK A01 T00140004  RH  093%=      5-min Rain = 0
KFL1 080846Z 03006KT 01/00 A3014 RMK A01 T00140003  RH  092%=      5-min Rain = 0
KFL1 080847Z 04005KT 02/00 A3014 RMK A01 T00160004  RH  092%=      5-min Rain = 0
KFL1 080848Z 04005KT 02/01 A3014 RMK A01 T00160005  RH  092%=      5-min Rain = 0
KFL1 080849Z 04005KT 02/00 A3014 RMK A01 T00150003  RH  092%=      5-min Rain = 0
KFL1 080850Z 04005KT 02/00 A3014 RMK A01 T00160004  RH  092%=      5-min Rain = 0
KFL1 080851Z 03005KT 02/00 A3014 RMK A01 T00150004  RH  092%=      5-min Rain = 0
KFL1 080852Z 03005KT 02/01 A3014 RMK A01 T00160005  RH  092%=      5-min Rain = 0
KFL1 080853Z 02005KT 01/00 A3014 RMK A01 T00140003  RH  092%=      5-min Rain = 0
KFL1 080854Z 02004KT 02/00 A3014 RMK A01 T00150004  RH  092%=      5-min Rain = 0
KFL1 080855Z 04004KT 02/00 A3014 RMK A01 T00150004  RH  093%=      5-min Rain = 0
KFL1 080856Z 04003KT 02/00 A3014 RMK A01 T00150004  RH  093%=      5-min Rain = 0
KFL1 080857Z 04004KT 01/00 A3014 RMK A01 T00140004  RH  093%=      5-min Rain = 0
KFL1 080858Z 02003KT 02/01 A3014 RMK A01 T00150005  RH  093%=      5-min Rain = 0
KFL1 080859Z 02003KT 02/01 A3014 RMK A01 T00160005  RH  093%=      5-min Rain = 0
KFL1 080900Z 01004KT 02/01 A3014 RMK A01 T00150005  RH  093%=      5-min Rain = 0
KFL1 080901Z 01004KT 02/01 A3014 RMK A01 T00150005  RH  093%=      5-min Rain = 0
KFL1 080902Z 01003KT 01/01 A3015 RMK A01 T00140005  RH  094%=      5-min Rain = 0
KFL1 080903Z 01003KT 02/01 A3015 RMK A01 T00150006  RH  094%=      5-min Rain = 0
KFL1 080904Z 01002KT 01/01 A3015 RMK A01 T00140006  RH  094%=      5-min Rain = 0
KFL1 080905Z 01002KT 02/01 A3015 RMK A01 T00150007  RH  095%=      5-min Rain = 0
KFL1 080906Z 02002KT 01/01 A3015 RMK A01 T00140007  RH  095%=      5-min Rain = 0
KFL1 080907Z 02003KT 01/01 A3015 RMK A01 T00140008  RH  095%=      5-min Rain = 0
KFL1 080908Z 03003KT 01/01 A3015 RMK A01 T00140008  RH  096%=      5-min Rain = 0
KFL1 080909Z 05002KT 01/01 A3015 RMK A01 T00130007  RH  096%=      5-min Rain = 0
KFL1 080910Z 07002KT 01/01 A3015 RMK A01 T00140009  RH  096%=      5-min Rain = 0
KFL1 080911Z 07002KT 01/01 A3015 RMK A01 T00130008  RH  097%=      5-min Rain = 0
KFL1 080912Z 07003KT 01/01 A3014 RMK A01 T00120008  RH  097%=      5-min Rain = 0
KFL1 080913Z 07004KT 01/01 A3014 RMK A01 T00120009  RH  098%=      5-min Rain = 0
KFL1 080914Z 07003KT 01/01 A3014 RMK A01 T00100008  RH  099%=      5-min Rain = 0
KFL1 080915Z 08002KT 01/01 A3014 RMK A01 T00110009  RH  099%=      5-min Rain = 0
KFL1 080916Z 06002KT 01/01 A3014 RMK A01 T00090008  RH  100%=      5-min Rain = 0
KFL1 080917Z 06002KT 01/01 A3014 RMK A01 T00090009  RH  100%=      5-min Rain = 0
KFL1 080918Z 05003KT 01/01 A3014 RMK A01 T00100010  RH  100%=      5-min Rain = 0
KFL1 080919Z 04003KT 01/01 A3014 RMK A01 T00080008  RH  100%=      5-min Rain = 0
KFL1 080920Z 04004KT 01/01 A3014 RMK A01 T00070007  RH  100%=      5-min Rain = 0
KFL1 080921Z 03003KT 01/01 A3014 RMK A01 T00070007  RH  100%=      5-min Rain = 0
KFL1 080922Z 02004KT 01/01 A3014 RMK A01 T00080008  RH  100%=      5-min Rain = 0
KFL1 080923Z 03004KT 01/01 A3014 RMK A01 T00070007  RH  100%=      5-min Rain = 0
KFL1 080924Z 07003KT 01/01 A3014 RMK A01 T00080008  RH  100%=      5-min Rain = 0
KFL1 080925Z 08004KT 01/01 A3013 RMK A01 T00060006  RH  100%=      5-min Rain = 0
KFL1 080926Z 08004KT 01/01 A3013 RMK A01 T00070007  RH  100%=      5-min Rain = 0
KFL1 080927Z 07003KT 01/01 A3013 RMK A01 T00060006  RH  100%=      5-min Rain = 0
KFL1 080928Z 09004KT 01/01 A3013 RMK A01 T00070007  RH  100%=      5-min Rain = 0
KFL1 080929Z 09005KT 01/01 A3013 RMK A01 T00070007  RH  100%=      5-min Rain = 0
KFL1 080930Z 10004KT 01/01 A3013 RMK A01 T00060006  RH  100%=      5-min Rain = 0
KFL1 080931Z 10003KT 01/01 A3013 RMK A01 T00070007  RH  100%=      5-min Rain = 0
KFL1 080932Z 11003KT 01/01 A3013 RMK A01 T00060006  RH  100%=      5-min Rain = 0
KFL1 080933Z 10002KT 01/01 A3013 RMK A01 T00050005  RH  100%=      5-min Rain = 0
KFL1 080934Z 09002KT 01/01 A3013 RMK A01 T00050005  RH  100%=      5-min Rain = 0
KFL1 080935Z 09003KT 01/01 A3013 RMK A01 T00060006  RH  100%=      5-min Rain = 0
KFL1 080936Z 09003KT 01/01 A3013 RMK A01 T00050005  RH  100%=      5-min Rain = 0
KFL1 080937Z 08002KT 01/01 A3013 RMK A01 T00050005  RH  100%=      5-min Rain = 0
KFL1 080938Z 08002KT 01/01 A3013 RMK A01 T00050005  RH  100%=      5-min Rain = 0
KFL1 080939Z 08002KT 01/01 A3013 RMK A01 T00060006  RH  100%=      5-min Rain = 0
KFL1 080940Z 06002KT 01/01 A3013 RMK A01 T00060006  RH  100%=      5-min Rain = 0
KFL1 080941Z 05002KT 01/01 A3013 RMK A01 T00050005  RH  100%=      5-min Rain = 0
KFL1 080942Z 03002KT 01/01 A3013 RMK A01 T00060006  RH  100%=      5-min Rain = 0
KFL1 080943Z 03003KT 01/01 A3013 RMK A01 T00070007  RH  100%=      5-min Rain = 0
KFL1 080944Z 04003KT 01/01 A3013 RMK A01 T00060006  RH  100%=      5-min Rain = 0
KFL1 080945Z 04004KT 01/01 A3013 RMK A01 T00060006  RH  100%=      5-min Rain = 0
KFL1 080946Z 04004KT 01/01 A3013 RMK A01 T00060006  RH  100%=      5-min Rain = 0
KFL1 080947Z 03004KT 01/01 A3013 RMK A01 T00060006  RH  100%=      5-min Rain = 0
KFL1 080948Z 02004KT 01/01 A3013 RMK A01 T00070007  RH  100%=      5-min Rain = 0
KFL1 080949Z 03004KT 01/01 A3013 RMK A01 T00070007  RH  100%=      5-min Rain = 0
KFL1 080950Z 04004KT 01/01 A3013 RMK A01 T00070007  RH  100%=      5-min Rain = 0
KFL1 080951Z 05004KT 01/01 A3012 RMK A01 T00070007  RH  100%=      5-min Rain = 0
KFL1 080952Z 06003KT 01/01 A3012 RMK A01 T00060006  RH  100%=      5-min Rain = 0
KFL1 080953Z 07004KT 01/01 A3012 RMK A01 T00060006  RH  100%=      5-min Rain = 0
KFL1 080954Z 07003KT 01/01 A3012 RMK A01 T00070007  RH  100%=      5-min Rain = 0
KFL1 080955Z 07003KT 01/01 A3012 RMK A01 T00080008  RH  100%=      5-min Rain = 0
KFL1 080956Z 08003KT 01/01 A3012 RMK A01 T00070007  RH  100%=      5-min Rain = 0
KFL1 080957Z 08003KT 01/01 A3012 RMK A01 T00060006  RH  100%=      5-min Rain = 0
KFL1 080958Z 08002KT 01/01 A3012 RMK A01 T00070007  RH  100%=      5-min Rain = 0
KFL1 080959Z 08002KT 01/01 A3012 RMK A01 T00060006  RH  100%=      5-min Rain = 0
KFL1 081000Z 07002KT 01/01 A3012 RMK A01 T00070007  RH  100%=      5-min Rain = 0
KFL1 081001Z 06002KT 01/01 A3012 RMK A01 T00070007  RH  100%=      5-min Rain = 0
KFL1 081002Z 07002KT 01/01 A3012 RMK A01 T00060006  RH  100%=      5-min Rain = 0
KFL1 081003Z 07002KT 01/01 A3012 RMK A01 T00060006  RH  100%=      5-min Rain = 0
KFL1 081004Z 07002KT 01/01 A3012 RMK A01 T00060006  RH  100%=      5-min Rain = 0
KFL1 081005Z 07002KT 01/01 A3012 RMK A01 T00060006  RH  100%=      5-min Rain = 0
KFL1 081006Z 06003KT 01/01 A3012 RMK A01 T00060006  RH  100%=      5-min Rain = 0
KFL1 081007Z 06002KT 01/01 A3012 RMK A01 T00070007  RH  100%=      5-min Rain = 0
KFL1 081008Z 06002KT 01/01 A3012 RMK A01 T00060006  RH  100%=      5-min Rain = 0
KFL1 081009Z 06002KT 01/01 A3012 RMK A01 T00060006  RH  100%=      5-min Rain = 0
KFL1 081010Z 06003KT 01/01 A3012 RMK A01 T00060006  RH  100%=      5-min Rain = 0
KFL1 081011Z 06002KT 01/01 A3012 RMK A01 T00060006  RH  100%=      5-min Rain = 0
KFL1 081012Z 01001KT 01/01 A3012 RMK A01 T00070007  RH  100%=      5-min Rain = 0
KFL1 081013Z 01002KT 01/01 A3012 RMK A01 T00070007  RH  100%=      5-min Rain = 0
KFL1 081014Z 01003KT 01/01 A3012 RMK A01 T00070007  RH  100%=      5-min Rain = 0
KFL1 081015Z 02003KT 01/01 A3012 RMK A01 T00060006  RH  100%=      5-min Rain = 0
KFL1 081016Z 03003KT 01/01 A3012 RMK A01 T00080008  RH  100%=      5-min Rain = 0
KFL1 081017Z 02002KT 01/01 A3012 RMK A01 T00060006  RH  100%=      5-min Rain = 0
KFL1 081018Z 04001KT 01/01 A3012 RMK A01 T00070007  RH  100%=      5-min Rain = 0
KFL1 081019Z 09001KT 01/01 A3012 RMK A01 T00070007  RH  100%=      5-min Rain = 0
KFL1 081020Z 11002KT 01/01 A3012 RMK A01 T00070007  RH  100%=      5-min Rain = 0
KFL1 081021Z 11001KT 01/01 A3012 RMK A01 T00070007  RH  100%=      5-min Rain = 0
KFL1 081022Z 17001KT 01/01 A3012 RMK A01 T00070007  RH  100%=      5-min Rain = 0
KFL1 081023Z 21001KT 01/01 A3012 RMK A01 T00080008  RH  100%=      5-min Rain = 0
KFL1 081024Z 25000KT 01/01 A3012 RMK A01 T00060006  RH  100%=      5-min Rain = 0
KFL1 081025Z 27001KT 01/01 A3012 RMK A01 T00060006  RH  100%=      5-min Rain = 0
KFL1 081026Z 30001KT 01/01 A3012 RMK A01 T00070007  RH  100%=      5-min Rain = 0
KFL1 081027Z 30001KT 01/01 A3012 RMK A01 T00050005  RH  100%=      5-min Rain = 0
KFL1 081028Z 30001KT 01/01 A3012 RMK A01 T00070007  RH  100%=      5-min Rain = 0
KFL1 081029Z 29001KT 01/01 A3012 RMK A01 T00060006  RH  100%=      5-min Rain = 0
KFL1 081030Z 29000KT 01/01 A3012 RMK A01 T00060006  RH  100%=      5-min Rain = 0
KFL1 081031Z 00000KT 01/01 A3012 RMK A01 T00060006  RH  100%=      5-min Rain = 0
KFL1 081032Z 00000KT 01/01 A3012 RMK A01 T00060006  RH  100%=      5-min Rain = 0
KFL1 081033Z 00000KT 01/01 A3012 RMK A01 T00060006  RH  100%=      5-min Rain = 0
KFL1 081034Z 00000KT 01/01 A3012 RMK A01 T00060006  RH  100%=      5-min Rain = 0
KFL1 081035Z 00000KT 01/01 A3012 RMK A01 T00060006  RH  100%=      5-min Rain = 0
KFL1 081036Z 00000KT 01/01 A3012 RMK A01 T00060006  RH  100%=      5-min Rain = 0
KFL1 081037Z 00000KT 01/01 A3012 RMK A01 T00060006  RH  100%=      5-min Rain = 0
KFL1 081038Z 00000KT 01/01 A3011 RMK A01 T00060006  RH  100%=      5-min Rain = 0
KFL1 081039Z 00000KT 01/01 A3011 RMK A01 T00060006  RH  100%=      5-min Rain = 0
KFL1 081040Z 00000KT 01/01 A301 RMK A01 T00050005  RH  100%=      5-min Rain = 0
KFL1 081041Z 15005KT 01/01 A301 RMK A01 T00060006  RH  100%=      5-min Rain = 0
KFL1 081042Z 14006KT 01/01 A301 RMK A01 T00050005  RH  100%=      5-min Rain = 0
KFL1 081043Z 14006KT 01/01 A301 RMK A01 T00050005  RH  100%=      5-min Rain = 0
KFL1 081044Z 12005KT 00/00 A3009 RMK A01 T00040004  RH  100%=      5-min Rain = 0
KFL1 081045Z 12006KT 00/00 A3009 RMK A01 T00040004  RH  100%=      5-min Rain = 0
KFL1 081046Z 11005KT 00/00 A3008 RMK A01 T00040004  RH  100%=      5-min Rain = 0
KFL1 081047Z 09004KT 01/01 A3008 RMK A01 T00050005  RH  100%=      5-min Rain = 0
KFL1 081048Z 07003KT 00/00 A3008 RMK A01 T00040004  RH  100%=      5-min Rain = 0
KFL1 081049Z 02004KT 00/00 A3009 RMK A01 T00040004  RH  100%=      5-min Rain = 0
KFL1 081050Z 02005KT 00/00 A3009 RMK A01 T00040004  RH  100%=      5-min Rain = 0
KFL1 081051Z 02005KT 00/00 A3009 RMK A01 T00040004  RH  100%=      5-min Rain = 0
KFL1 081052Z 02005KT 00/00 A3009 RMK A01 T00040004  RH  100%=      5-min Rain = 0
KFL1 081053Z 02004KT 01/01 A301 RMK A01 T00060006  RH  100%=      5-min Rain = 0
KFL1 081054Z 01003KT 01/01 A301 RMK A01 T00060006  RH  100%=      5-min Rain = 0
KFL1 081055Z 01001KT 01/01 A301 RMK A01 T00050005  RH  100%=      5-min Rain = 0
KFL1 081056Z 01001KT 01/01 A301 RMK A01 T00060006  RH  100%=      5-min Rain = 0
KFL1 081057Z 34002KT 01/01 A301 RMK A01 T00060006  RH  100%=      5-min Rain = 0
KFL1 081058Z 33002KT 01/01 A301 RMK A01 T00060006  RH  100%=      5-min Rain = 0
KFL1 081059Z 32002KT 01/01 A301 RMK A01 T00050005  RH  100%=      5-min Rain = 0
KFL1 081100Z 33003KT 01/01 A301 RMK A01 T00070007  RH  100%=      5-min Rain = 0
KFL1 081101Z 34003KT 01/01 A301 RMK A01 T00060006  RH  100%=      5-min Rain = 0
KFL1 081102Z 34003KT 01/01 A301 RMK A01 T00050005  RH  100%=      5-min Rain = 0
KFL1 081103Z 34003KT 01/01 A301 RMK A01 T00050005  RH  100%=      5-min Rain = 0
KFL1 081104Z 34003KT 01/01 A301 RMK A01 T00050005  RH  100%=      5-min Rain = 0
KFL1 081105Z 35003KT 01/01 A301 RMK A01 T00060006  RH  100%=      5-min Rain = 0
KFL1 081106Z 35002KT 01/01 A301 RMK A01 T00060006  RH  100%=      5-min Rain = 0
KFL1 081107Z 00002KT 01/01 A301 RMK A01 T00050005  RH  100%=      5-min Rain = 0
KFL1 081108Z 01002KT 01/01 A3009 RMK A01 T00060006  RH  100%=      5-min Rain = 0
KFL1 081109Z 36002KT 01/01 A3009 RMK A01 T00060006  RH  100%=      5-min Rain = 0
KFL1 081110Z 36002KT 01/01 A301 RMK A01 T00050005  RH  100%=      5-min Rain = 0
KFL1 081111Z 00002KT 01/01 A301 RMK A01 T00060006  RH  100%=      5-min Rain = 0
KFL1 081112Z 00001KT 01/01 A301 RMK A01 T00060006  RH  100%=      5-min Rain = 0
KFL1 081113Z 00000KT 01/01 A301 RMK A01 T00050005  RH  100%=      5-min Rain = 0
KFL1 081114Z 00000KT 01/01 A3009 RMK A01 T00060006  RH  100%=      5-min Rain = 0
KFL1 081115Z 00000KT 01/01 A3009 RMK A01 T00060006  RH  100%=      5-min Rain = 0
KFL1 081116Z 00000KT 01/01 A3009 RMK A01 T00060006  RH  100%=      5-min Rain = 0
KFL1 081117Z 00000KT 01/01 A3009 RMK A01 T00070007  RH  100%=      5-min Rain = 0
KFL1 081118Z 00000KT 01/01 A3009 RMK A01 T00070007  RH  100%=      5-min Rain = 0
KFL1 081119Z 00000KT 01/01 A3009 RMK A01 T00060006  RH  100%=      5-min Rain = 0
KFL1 081120Z 00000KT 01/01 A3009 RMK A01 T00060006  RH  100%=      5-min Rain = 0
KFL1 081121Z 00000KT 01/01 A3009 RMK A01 T00060006  RH  100%=      5-min Rain = 0
KFL1 081122Z 00000KT 01/01 A3009 RMK A01 T00050005  RH  100%=      5-min Rain = 0
KFL1 081123Z 00000KT 01/01 A3009 RMK A01 T00070007  RH  100%=      5-min Rain = 0
KFL1 081124Z 00000KT 01/01 A3009 RMK A01 T00060006  RH  100%=      5-min Rain = 0
KFL1 081125Z 00000KT 01/01 A3009 RMK A01 T00060006  RH  100%=      5-min Rain = 0
KFL1 081126Z 00000KT 01/01 A3009 RMK A01 T00050005  RH  100%=      5-min Rain = 0
KFL1 081127Z 00000KT 01/01 A3009 RMK A01 T00050005  RH  100%=      5-min Rain = 0
KFL1 081128Z 00000KT 01/01 A3009 RMK A01 T00050005  RH  100%=      5-min Rain = 0
KFL1 081129Z 00000KT 01/01 A3009 RMK A01 T00060006  RH  100%=      5-min Rain = 0
KFL1 081130Z 00000KT 01/01 A3008 RMK A01 T00050005  RH  100%=      5-min Rain = 0
KFL1 081131Z 00000KT 01/01 A3008 RMK A01 T00060006  RH  100%=      5-min Rain = 0
KFL1 081132Z 00000KT 01/01 A3008 RMK A01 T00050005  RH  100%=      5-min Rain = 0
KFL1 081133Z 00000KT 01/01 A3008 RMK A01 T00060006  RH  100%=      5-min Rain = 0
KFL1 081134Z 00000KT 01/01 A3008 RMK A01 T00050005  RH  100%=      5-min Rain = 0
KFL1 081135Z 00000KT 00/00 A3008 RMK A01 T00040004  RH  100%=      5-min Rain = 0
KFL1 081136Z 00000KT 01/01 A3008 RMK A01 T00060006  RH  100%=      5-min Rain = 0
KFL1 081137Z 00000KT 01/01 A3008 RMK A01 T00060006  RH  100%=      5-min Rain = 0
KFL1 081138Z 00000KT 01/01 A3008 RMK A01 T00050005  RH  100%=      5-min Rain = 0
KFL1 081139Z 00000KT 01/01 A3008 RMK A01 T00050005  RH  100%=      5-min Rain = 0
KFL1 081140Z 00000KT 00/00 A3008 RMK A01 T00040004  RH  100%=      5-min Rain = 0
KFL1 081141Z 00000KT 00/00 A3008 RMK A01 T00040004  RH  100%=      5-min Rain = 0
KFL1 081142Z 00000KT 01/01 A3008 RMK A01 T00050005  RH  100%=      5-min Rain = 0
KFL1 081143Z 00000KT 01/01 A3008 RMK A01 T00060006  RH  100%=      5-min Rain = 0
KFL1 081144Z 00000KT 01/01 A3008 RMK A01 T00050005  RH  100%=      5-min Rain = 0
KFL1 081145Z 00000KT 01/01 A3008 RMK A01 T00050005  RH  100%=      5-min Rain = 0
KFL1 081146Z 00000KT 01/01 A3008 RMK A01 T00060006  RH  100%=      5-min Rain = 0
KFL1 081147Z 00000KT 01/01 A3008 RMK A01 T00050005  RH  100%=      5-min Rain = 0
KFL1 081148Z 00000KT 00/00 A3008 RMK A01 T00040004  RH  100%=      5-min Rain = 0
KFL1 081149Z 00000KT 01/01 A3008 RMK A01 T00050005  RH  100%=      5-min Rain = 0
KFL1 081150Z 00000KT 01/01 A3008 RMK A01 T00050005  RH  100%=      5-min Rain = 0
KFL1 081151Z 00000KT 01/01 A3008 RMK A01 T00050005  RH  100%=      5-min Rain = 0
KFL1 081152Z 00000KT 01/01 A3008 RMK A01 T00060006  RH  100%=      5-min Rain = 0
KFL1 081153Z 00000KT 00/00 A3008 RMK A01 T00040004  RH  100%=      5-min Rain = 0
KFL1 081154Z 00000KT 01/01 A3008 RMK A01 T00050005  RH  100%=      5-min Rain = 0
KFL1 081155Z 00000KT 01/01 A3008 RMK A01 T00060006  RH  100%=      5-min Rain = 0
KFL1 081156Z 00000KT 01/01 A3008 RMK A01 T00050005  RH  100%=      5-min Rain = 0
KFL1 081157Z 00000KT 00/00 A3007 RMK A01 T00040004  RH  100%=      5-min Rain = 0
KFL1 081158Z 00000KT 01/01 A3007 RMK A01 T00050005  RH  100%=      5-min Rain = 0
KFL1 081159Z 00000KT 01/01 A3007 RMK A01 T00050005  RH  100%=      5-min Rain = 0
KFL1 081200Z 00000KT 01/01 A3007 RMK A01 T00050005  RH  100%=      5-min Rain = 0
KFL1 081201Z 00000KT 01/01 A3008 RMK A01 T00050005  RH  100%=      5-min Rain = 0
KFL1 081202Z 00000KT 01/01 A3007 RMK A01 T00050005  RH  100%=      5-min Rain = 0
KFL1 081203Z 00000KT 01/01 A3007 RMK A01 T00050005  RH  100%=      5-min Rain = 0
KFL1 081204Z 00000KT 01/01 A3007 RMK A01 T00060006  RH  100%=      5-min Rain = 0
KFL1 081205Z 00000KT 01/01 A3007 RMK A01 T00060006  RH  100%=      5-min Rain = 0
KFL1 081206Z 00000KT 01/01 A3007 RMK A01 T00050005  RH  100%=      5-min Rain = 0
KFL1 081207Z 00000KT 01/01 A3007 RMK A01 T00050005  RH  100%=      5-min Rain = 0
KFL1 081208Z 00000KT 01/01 A3007 RMK A01 T00050005  RH  100%=      5-min Rain = 0
KFL1 081209Z 00000KT 01/01 A3007 RMK A01 T00060006  RH  100%=      5-min Rain = 0
KFL1 081210Z 00000KT 01/01 A3007 RMK A01 T00050005  RH  100%=      5-min Rain = 0
KFL1 081211Z 00000KT 01/01 A3007 RMK A01 T00050005  RH  100%=      5-min Rain = 0
KFL1 081212Z 00000KT 01/01 A3007 RMK A01 T00060006  RH  100%=      5-min Rain = 0
KFL1 081213Z 00000KT 01/01 A3007 RMK A01 T00050005  RH  100%=      5-min Rain = 0
KFL1 081214Z 00000KT 01/01 A3007 RMK A01 T00050005  RH  100%=      5-min Rain = 0
KFL1 081215Z 00000KT 01/01 A3007 RMK A01 T00060006  RH  100%=      5-min Rain = 0
KFL1 081216Z 00000KT 01/01 A3007 RMK A01 T00070007  RH  100%=      5-min Rain = 0
KFL1 081217Z 00000KT 01/01 A3007 RMK A01 T00050005  RH  100%=      5-min Rain = 0
KFL1 081218Z 00000KT 01/01 A3007 RMK A01 T00050005  RH  100%=      5-min Rain = 0
KFL1 081219Z 00000KT 01/01 A3007 RMK A01 T00050005  RH  100%=      5-min Rain = 0
KFL1 081220Z 00000KT 01/01 A3007 RMK A01 T00060006  RH  100%=      5-min Rain = 0
KFL1 081221Z 00000KT 01/01 A3007 RMK A01 T00050005  RH  100%=      5-min Rain = 0
KFL1 081222Z 00000KT 01/01 A3007 RMK A01 T00050005  RH  100%=      5-min Rain = 0
KFL1 081223Z 00000KT 01/01 A3006 RMK A01 T00060006  RH  100%=      5-min Rain = 0
KFL1 081224Z 00000KT 01/01 A3006 RMK A01 T00060006  RH  100%=      5-min Rain = 0
KFL1 081225Z 00000KT 01/01 A3006 RMK A01 T00060006  RH  100%=      5-min Rain = 0
KFL1 081226Z 00000KT 01/01 A3006 RMK A01 T00050005  RH  100%=      5-min Rain = 0
KFL1 081227Z 00000KT 01/01 A3006 RMK A01 T00050005  RH  100%=      5-min Rain = 0
KFL1 081228Z 00000KT 01/01 A3006 RMK A01 T00060006  RH  100%=      5-min Rain = 0
KFL1 081229Z 00000KT 01/01 A3007 RMK A01 T00050005  RH  100%=      5-min Rain = 0
KFL1 081230Z 00000KT 00/00 A3007 RMK A01 T00040004  RH  100%=      5-min Rain = 0
KFL1 081231Z 00000KT 01/01 A3007 RMK A01 T00050005  RH  100%=      5-min Rain = 0
KFL1 081232Z 00000KT 01/01 A3007 RMK A01 T00050005  RH  100%=      5-min Rain = 0
KFL1 081233Z 00000KT 01/01 A3006 RMK A01 T00050005  RH  100%=      5-min Rain = 0
KFL1 081234Z 00000KT 00/00 A3006 RMK A01 T00040004  RH  100%=      5-min Rain = 0
KFL1 081235Z 00000KT 01/01 A3006 RMK A01 T00050005  RH  100%=      5-min Rain = 0
KFL1 081236Z 00000KT 01/01 A3006 RMK A01 T00060006  RH  100%=      5-min Rain = 0
KFL1 081237Z 00000KT 01/01 A3006 RMK A01 T00050005  RH  100%=      5-min Rain = 0
KFL1 081238Z 00000KT 00/00 A3006 RMK A01 T00040004  RH  100%=      5-min Rain = 0
KFL1 081239Z 00000KT 01/01 A3006 RMK A01 T00050005  RH  100%=      5-min Rain = 0
KFL1 081240Z 00000KT 00/00 A3006 RMK A01 T00040004  RH  100%=      5-min Rain = 0
KFL1 081241Z 00000KT 01/01 A3006 RMK A01 T00050005  RH  100%=      5-min Rain = 0
KFL1 081242Z 00000KT 00/00 A3006 RMK A01 T00040004  RH  100%=      5-min Rain = 0
KFL1 081243Z 00000KT 00/00 A3006 RMK A01 T00040004  RH  100%=      5-min Rain = 0
KFL1 081244Z 00000KT 01/01 A3006 RMK A01 T00050005  RH  100%=      5-min Rain = 0
KFL1 081245Z 00000KT 01/01 A3006 RMK A01 T00050005  RH  100%=      5-min Rain = 0
KFL1 081246Z 00000KT 01/01 A3006 RMK A01 T00050005  RH  100%=      5-min Rain = 0
KFL1 081247Z 00000KT 00/00 A3006 RMK A01 T00040004  RH  100%=      5-min Rain = 0
KFL1 081248Z 00000KT 01/01 A3006 RMK A01 T00050005  RH  100%=      5-min Rain = 0
KFL1 081249Z 00000KT 01/01 A3006 RMK A01 T00050005  RH  100%=      5-min Rain = 0
KFL1 081250Z 00000KT 00/00 A3006 RMK A01 T00040004  RH  100%=      5-min Rain = 0
KFL1 081251Z 00000KT 00/00 A3006 RMK A01 T00040004  RH  100%=      5-min Rain = 0
KFL1 081252Z 00000KT 01/01 A3006 RMK A01 T00050005  RH  100%=      5-min Rain = 0
KFL1 081253Z 00000KT 01/01 A3006 RMK A01 T00050005  RH  100%=      5-min Rain = 0
KFL1 081254Z 00000KT 01/01 A3006 RMK A01 T00050005  RH  100%=      5-min Rain = 0
KFL1 081255Z 00000KT 01/01 A3006 RMK A01 T00050005  RH  100%=      5-min Rain = 0
KFL1 081256Z 00000KT 01/01 A3006 RMK A01 T00050005  RH  100%=      5-min Rain = 0
KFL1 081257Z 00000KT 00/00 A3006 RMK A01 T00040004  RH  100%=      5-min Rain = 0
KFL1 081258Z 00000KT 01/01 A3006 RMK A01 T00050005  RH  100%=      5-min Rain = 0
KFL1 081259Z 00000KT 00/00 A3006 RMK A01 T00040004  RH  100%=      5-min Rain = 0
KFL1 081300Z 00000KT 00/00 A3006 RMK A01 T00030003  RH  100%=      5-min Rain = 0
KFL1 081301Z 00000KT 00/00 A3005 RMK A01 T00040004  RH  100%=      5-min Rain = 0
KFL1 081302Z 00000KT 00/00 A3005 RMK A01 T00040004  RH  100%=      5-min Rain = 0
KFL1 081303Z 00000KT 00/00 A3005 RMK A01 T00040004  RH  100%=      5-min Rain = 0
KFL1 081304Z 00000KT 01/01 A3005 RMK A01 T00050005  RH  100%=      5-min Rain = 0
KFL1 081305Z 00000KT 00/00 A3005 RMK A01 T00040004  RH  100%=      5-min Rain = 0
KFL1 081306Z 00000KT 01/01 A3005 RMK A01 T00050005  RH  100%=      5-min Rain = 0
KFL1 081307Z 00000KT 00/00 A3005 RMK A01 T00030003  RH  100%=      5-min Rain = 0
KFL1 081308Z 00000KT 00/00 A3005 RMK A01 T00040004  RH  100%=      5-min Rain = 0
KFL1 081309Z 00000KT 00/00 A3005 RMK A01 T00040004  RH  100%=      5-min Rain = 0
KFL1 081310Z 00000KT 00/00 A3005 RMK A01 T00040004  RH  100%=      5-min Rain = 0
KFL1 081311Z 00000KT 01/01 A3005 RMK A01 T00060006  RH  100%=      5-min Rain = 0
KFL1 081312Z 00000KT 00/00 A3005 RMK A01 T00040004  RH  100%=      5-min Rain = 0
KFL1 081313Z 00000KT 01/01 A3005 RMK A01 T00050005  RH  100%=      5-min Rain = 0
KFL1 081314Z 00000KT 00/00 A3005 RMK A01 T00040004  RH  100%=      5-min Rain = 0
KFL1 081315Z 00000KT 00/00 A3005 RMK A01 T00040004  RH  100%=      5-min Rain = 0
KFL1 081316Z 00000KT 00/00 A3005 RMK A01 T00040004  RH  100%=      5-min Rain = 0
KFL1 081317Z 00000KT 01/01 A3005 RMK A01 T00050005  RH  100%=      5-min Rain = 0
KFL1 081318Z 00000KT 00/00 A3005 RMK A01 T00030003  RH  100%=      5-min Rain = 0
KFL1 081319Z 00000KT 00/00 A3005 RMK A01 T00040004  RH  100%=      5-min Rain = 0
KFL1 081320Z 00000KT 00/00 A3005 RMK A01 T00040004  RH  100%=      5-min Rain = 0
KFL1 081321Z 00000KT 01/01 A3005 RMK A01 T00050005  RH  100%=      5-min Rain = 0
KFL1 081322Z 00000KT 00/00 A3005 RMK A01 T00040004  RH  100%=      5-min Rain = 0
KFL1 081323Z 00000KT 00/00 A3005 RMK A01 T00040004  RH  100%=      5-min Rain = 0
KFL1 081324Z 00000KT 00/00 A3006 RMK A01 T00040004  RH  100%=      5-min Rain = 0
KFL1 081325Z 00000KT 00/00 A3006 RMK A01 T00040004  RH  100%=      5-min Rain = 0
KFL1 081326Z 00000KT 00/00 A3006 RMK A01 T00040004  RH  100%=      5-min Rain = 0
KFL1 081327Z 00000KT 00/00 A3006 RMK A01 T00040004  RH  100%=      5-min Rain = 0
KFL1 081328Z 00000KT 01/01 A3006 RMK A01 T00050005  RH  100%=      5-min Rain = 0
KFL1 081329Z 00000KT 00/00 A3006 RMK A01 T00040004  RH  100%=      5-min Rain = 0
KFL1 081330Z 00000KT 00/00 A3006 RMK A01 T00040004  RH  100%=      5-min Rain = 0
KFL1 081331Z 00000KT 00/00 A3005 RMK A01 T00040004  RH  100%=      5-min Rain = 0
KFL1 081332Z 00000KT 01/01 A3005 RMK A01 T00050005  RH  100%=      5-min Rain = 0
KFL1 081333Z 00000KT 00/00 A3005 RMK A01 T00040004  RH  100%=      5-min Rain = 0
KFL1 081334Z 00000KT 00/00 A3005 RMK A01 T00040004  RH  100%=      5-min Rain = 0
KFL1 081335Z 00000KT 00/00 A3005 RMK A01 T00040004  RH  100%=      5-min Rain = 0
KFL1 081336Z 00000KT 00/00 A3005 RMK A01 T00030003  RH  100%=      5-min Rain = 0
KFL1 081337Z 00000KT 00/00 A3005 RMK A01 T00040004  RH  100%=      5-min Rain = 0
KFL1 081338Z 00000KT 00/00 A3005 RMK A01 T00040004  RH  100%=      5-min Rain = 0
KFL1 081339Z 00000KT 01/01 A3005 RMK A01 T00050005  RH  100%=      5-min Rain = 0
KFL1 081340Z 00000KT 00/00 A3006 RMK A01 T00040004  RH  100%=      5-min Rain = 0
KFL1 081341Z 00000KT 00/00 A3006 RMK A01 T00040004  RH  100%=      5-min Rain = 0
KFL1 081342Z 00000KT 00/00 A3006 RMK A01 T00040004  RH  100%=      5-min Rain = 0
KFL1 081343Z 00000KT 00/00 A3006 RMK A01 T00040004  RH  100%=      5-min Rain = 0
KFL1 081344Z 00000KT 01/01 A3005 RMK A01 T00050005  RH  100%=      5-min Rain = 0
KFL1 081345Z 00000KT 00/00 A3005 RMK A01 T00030003  RH  100%=      5-min Rain = 0
KFL1 081346Z 00000KT 00/00 A3005 RMK A01 T00030003  RH  100%=      5-min Rain = 0
KFL1 081347Z 00000KT 00/00 A3005 RMK A01 T00040004  RH  100%=      5-min Rain = 0
KFL1 081348Z 00000KT 00/00 A3005 RMK A01 T00040004  RH  100%=      5-min Rain = 0
KFL1 081349Z 00000KT 00/00 A3006 RMK A01 T00030003  RH  100%=      5-min Rain = 0
KFL1 081350Z 00000KT 00/00 A3006 RMK A01 T00040004  RH  100%=      5-min Rain = 0
KFL1 081351Z 00000KT 00/00 A3006 RMK A01 T00040004  RH  100%=      5-min Rain = 0
KFL1 081352Z 00000KT 01/01 A3005 RMK A01 T00050005  RH  100%=      5-min Rain = 0
KFL1 081353Z 00000KT 00/00 A3005 RMK A01 T00040004  RH  100%=      5-min Rain = 0
KFL1 081354Z 00000KT 00/00 A3005 RMK A01 T00040004  RH  100%=      5-min Rain = 0
KFL1 081355Z 00000KT 00/00 A3005 RMK A01 T00040004  RH  100%=      5-min Rain = 0
KFL1 081356Z 00000KT 00/00 A3005 RMK A01 T00040004  RH  100%=      5-min Rain = 0
KFL1 081357Z 00000KT 00/00 A3005 RMK A01 T00040004  RH  100%=      5-min Rain = 0
KFL1 081358Z 00000KT 01/01 A3006 RMK A01 T00050005  RH  100%=      5-min Rain = 0
KFL1 081359Z 00000KT 00/00 A3005 RMK A01 T00040004  RH  100%=      5-min Rain = 0
KFL1 081400Z 00000KT 00/00 A3005 RMK A01 T00040004  RH  100%=      5-min Rain = 0
KFL1 081401Z 00000KT 00/00 A3005 RMK A01 T00040004  RH  100%=      5-min Rain = 0
KFL1 081402Z 00000KT 01/01 A3005 RMK A01 T00060006  RH  100%=      5-min Rain = 0
KFL1 081403Z 00000KT 00/00 A3005 RMK A01 T00040004  RH  100%=      5-min Rain = 0
KFL1 081404Z 00000KT 01/01 A3005 RMK A01 T00050005  RH  100%=      5-min Rain = 0
KFL1 081405Z 00000KT 00/00 A3005 RMK A01 T00030003  RH  100%=      5-min Rain = 0
KFL1 081406Z 00000KT 00/00 A3005 RMK A01 T00030003  RH  100%=      5-min Rain = 0
KFL1 081407Z 00000KT 01/01 A3005 RMK A01 T00050005  RH  100%=      5-min Rain = 0
KFL1 081408Z 00000KT 00/00 A3005 RMK A01 T00040004  RH  100%=      5-min Rain = 0
KFL1 081409Z 00000KT 01/01 A3005 RMK A01 T00050005  RH  100%=      5-min Rain = 0
KFL1 081410Z 00000KT 00/00 A3005 RMK A01 T00040004  RH  100%=      5-min Rain = 0
KFL1 081411Z 00000KT 00/00 A3005 RMK A01 T00040004  RH  100%=      5-min Rain = 0
KFL1 081412Z 00000KT 00/00 A3005 RMK A01 T00040004  RH  100%=      5-min Rain = 0
KFL1 081413Z 00000KT 01/01 A3004 RMK A01 T00050005  RH  100%=      5-min Rain = 0
KFL1 081414Z 00000KT 00/00 A3005 RMK A01 T00040004  RH  100%=      5-min Rain = 0
KFL1 081415Z 00000KT 00/00 A3005 RMK A01 T00040004  RH  100%=      5-min Rain = 0
KFL1 081416Z 00000KT 00/00 A3005 RMK A01 T00040004  RH  100%=      5-min Rain = 0
KFL1 081417Z 00000KT 00/00 A3005 RMK A01 T00030003  RH  100%=      5-min Rain = 0
KFL1 081418Z 00000KT 00/00 A3005 RMK A01 T00040004  RH  100%=      5-min Rain = 0
KFL1 081419Z 00000KT 01/01 A3005 RMK A01 T00050005  RH  100%=      5-min Rain = 0
KFL1 081420Z 00000KT 01/01 A3005 RMK A01 T00050005  RH  100%=      5-min Rain = 0
KFL1 081421Z 00000KT 00/00 A3005 RMK A01 T00040004  RH  100%=      5-min Rain = 0
KFL1 081422Z 00000KT 00/00 A3005 RMK A01 T00030003  RH  100%=      5-min Rain = 0
KFL1 081423Z 00000KT 00/00 A3004 RMK A01 T00040004  RH  100%=      5-min Rain = 0
KFL1 081424Z 00000KT 00/00 A3004 RMK A01 T00030003  RH  100%=      5-min Rain = 0
KFL1 081425Z 00000KT 00/00 A3004 RMK A01 T00040004  RH  100%=      5-min Rain = 0
KFL1 081426Z 00000KT 00/00 A3004 RMK A01 T00040004  RH  100%=      5-min Rain = 0
KFL1 081427Z 00000KT 00/00 A3004 RMK A01 T00040004  RH  100%=      5-min Rain = 0
KFL1 081428Z 00000KT 00/00 A3004 RMK A01 T00040004  RH  100%=      5-min Rain = 0
KFL1 081429Z 00000KT 00/00 A3005 RMK A01 T00040004  RH  100%=      5-min Rain = 0
KFL1 081430Z 00000KT 00/00 A3005 RMK A01 T00040004  RH  100%=      5-min Rain = 0
KFL1 081431Z 00000KT 00/00 A3005 RMK A01 T00040004  RH  100%=      5-min Rain = 0
KFL1 081432Z 00000KT 01/01 A3005 RMK A01 T00050005  RH  100%=      5-min Rain = 0
KFL1 081433Z 00000KT 00/00 A3004 RMK A01 T00030003  RH  100%=      5-min Rain = 0
KFL1 081434Z 00000KT 00/00 A3004 RMK A01 T00040004  RH  100%=      5-min Rain = 0.01
KFL1 081435Z 00000KT 00/00 A3004 RMK A01 T00040004  RH  100%=      5-min Rain = 0
KFL1 081436Z 00000KT 00/00 A3004 RMK A01 T00030003  RH  100%=      5-min Rain = 0
KFL1 081437Z 00000KT 00/00 A3004 RMK A01 T00040004  RH  100%=      5-min Rain = 0
KFL1 081438Z 00000KT 00/00 A3004 RMK A01 T00040004  RH  100%=      5-min Rain = 0
KFL1 081439Z 00000KT 00/00 A3004 RMK A01 T00040004  RH  100%=      5-min Rain = 0
KFL1 081440Z 00000KT 00/00 A3004 RMK A01 T00030003  RH  100%=      5-min Rain = 0
KFL1 081441Z 00000KT 00/00 A3004 RMK A01 T00040004  RH  100%=      5-min Rain = 0
KFL1 081442Z 00000KT 00/00 A3004 RMK A01 T00040004  RH  100%=      5-min Rain = 0
KFL1 081443Z 00000KT 01/01 A3004 RMK A01 T00050005  RH  100%=      5-min Rain = 0
KFL1 081444Z 00000KT 00/00 A3004 RMK A01 T00030003  RH  100%=      5-min Rain = 0
KFL1 081445Z 00000KT 00/00 A3004 RMK A01 T00040004  RH  100%=      5-min Rain = 0
KFL1 081446Z 00000KT 00/00 A3004 RMK A01 T00030003  RH  100%=      5-min Rain = 0
KFL1 081447Z 00000KT 00/00 A3004 RMK A01 T00030003  RH  100%=      5-min Rain = 0
KFL1 081448Z 00000KT 00/00 A3005 RMK A01 T00030003  RH  100%=      5-min Rain = 0
KFL1 081449Z 00000KT 00/00 A3005 RMK A01 T00020002  RH  100%=      5-min Rain = 0
KFL1 081450Z 00000KT 00/00 A3005 RMK A01 T00040004  RH  100%=      5-min Rain = 0
KFL1 081451Z 00000KT 00/00 A3005 RMK A01 T00040004  RH  100%=      5-min Rain = 0
KFL1 081452Z 00000KT 00/00 A3005 RMK A01 T00040004  RH  100%=      5-min Rain = 0
KFL1 081453Z 00000KT 00/00 A3005 RMK A01 T00030003  RH  100%=      5-min Rain = 0
KFL1 081454Z 00000KT 00/00 A3005 RMK A01 T00030003  RH  100%=      5-min Rain = 0
KFL1 081455Z 00000KT 00/00 A3005 RMK A01 T00040004  RH  100%=      5-min Rain = 0
KFL1 081456Z 00000KT 00/00 A3005 RMK A01 T00030003  RH  100%=      5-min Rain = 0
KFL1 081457Z 00000KT 00/00 A3005 RMK A01 T00030003  RH  100%=      5-min Rain = 0
KFL1 081458Z 00000KT 00/00 A3005 RMK A01 T00040004  RH  100%=      5-min Rain = 0
KFL1 081459Z 00000KT 00/00 A3005 RMK A01 T00040004  RH  100%=      5-min Rain = 0
KFL1 081500Z 00000KT 00/00 A3005 RMK A01 T00040004  RH  100%=      5-min Rain = 0
KFL1 081501Z 00000KT 00/00 A3005 RMK A01 T00030003  RH  100%=      5-min Rain = 0
KFL1 081502Z 00000KT 00/00 A3005 RMK A01 T00030003  RH  100%=      5-min Rain = 0
KFL1 081503Z 00000KT 00/00 A3005 RMK A01 T00040004  RH  100%=      5-min Rain = 0
KFL1 081504Z 00000KT 00/00 A3005 RMK A01 T00040004  RH  100%=      5-min Rain = 0
KFL1 081505Z 00000KT 00/00 A3005 RMK A01 T00030003  RH  100%=      5-min Rain = 0
KFL1 081506Z 00000KT 00/00 A3005 RMK A01 T00040004  RH  100%=      5-min Rain = 0
KFL1 081507Z 00000KT 00/00 A3005 RMK A01 T00030003  RH  100%=      5-min Rain = 0
KFL1 081508Z 00000KT 00/00 A3005 RMK A01 T00030003  RH  100%=      5-min Rain = 0
KFL1 081509Z 00000KT 00/00 A3005 RMK A01 T00040004  RH  100%=      5-min Rain = 0
KFL1 081510Z 00000KT 00/00 A3005 RMK A01 T00040004  RH  100%=      5-min Rain = 0
KFL1 081511Z 00000KT 00/00 A3005 RMK A01 T00030003  RH  100%=      5-min Rain = 0
KFL1 081512Z 00000KT 00/00 A3005 RMK A01 T00040004  RH  100%=      5-min Rain = 0
KFL1 081513Z 00000KT 01/01 A3005 RMK A01 T00050005  RH  100%=      5-min Rain = 0
KFL1 081514Z 00000KT 01/01 A3005 RMK A01 T00050005  RH  100%=      5-min Rain = 0
KFL1 081515Z 00000KT 00/00 A3005 RMK A01 T00040004  RH  100%=      5-min Rain = 0
KFL1 081516Z 00000KT 01/01 A3005 RMK A01 T00050005  RH  100%=      5-min Rain = 0
KFL1 081517Z 00000KT 00/00 A3005 RMK A01 T00040004  RH  100%=      5-min Rain = 0
KFL1 081518Z 00000KT 01/01 A3005 RMK A01 T00050005  RH  100%=      5-min Rain = 0
KFL1 081519Z 00000KT 00/00 A3005 RMK A01 T00040004  RH  100%=      5-min Rain = 0
KFL1 081520Z 00000KT 00/00 A3005 RMK A01 T00040004  RH  100%=      5-min Rain = 0
KFL1 081521Z 00000KT 00/00 A3005 RMK A01 T00040004  RH  100%=      5-min Rain = 0
KFL1 081522Z 00000KT 00/00 A3005 RMK A01 T00040004  RH  100%=      5-min Rain = 0
KFL1 081523Z 00000KT 00/00 A3005 RMK A01 T00040004  RH  100%=      5-min Rain = 0
KFL1 081524Z 00000KT 01/01 A3005 RMK A01 T00050005  RH  100%=      5-min Rain = 0
KFL1 081525Z 00000KT 01/01 A3005 RMK A01 T00050005  RH  100%=      5-min Rain = 0
KFL1 081526Z 00000KT 00/00 A3005 RMK A01 T00040004  RH  100%=      5-min Rain = 0
KFL1 081527Z 00000KT 01/01 A3005 RMK A01 T00050005  RH  100%=      5-min Rain = 0
KFL1 081528Z 00000KT 01/01 A3005 RMK A01 T00050005  RH  100%=      5-min Rain = 0
KFL1 081529Z 00000KT 00/00 A3005 RMK A01 T00040004  RH  100%=      5-min Rain = 0
KFL1 081530Z 00000KT 01/01 A3005 RMK A01 T00060006  RH  100%=      5-min Rain = 0
KFL1 081531Z 00000KT 01/01 A3005 RMK A01 T00050005  RH  100%=      5-min Rain = 0
KFL1 081532Z 00000KT 01/01 A3005 RMK A01 T00050005  RH  100%=      5-min Rain = 0
KFL1 081533Z 00000KT 01/01 A3005 RMK A01 T00050005  RH  100%=      5-min Rain = 0
KFL1 081534Z 00000KT 01/01 A3005 RMK A01 T00060006  RH  100%=      5-min Rain = 0
KFL1 081535Z 00000KT 01/01 A3005 RMK A01 T00050005  RH  100%=      5-min Rain = 0
KFL1 081536Z 00000KT 01/01 A3005 RMK A01 T00050005  RH  100%=      5-min Rain = 0
KFL1 081537Z 00000KT 01/01 A3005 RMK A01 T00050005  RH  100%=      5-min Rain = 0
KFL1 081538Z 00000KT 01/01 A3005 RMK A01 T00050005  RH  100%=      5-min Rain = 0
KFL1 081539Z 00000KT 01/01 A3005 RMK A01 T00060006  RH  100%=      5-min Rain = 0
KFL1 081540Z 00000KT 01/01 A3005 RMK A01 T00060006  RH  100%=      5-min Rain = 0
KFL1 081541Z 00000KT 01/01 A3005 RMK A01 T00060006  RH  100%=      5-min Rain = 0
KFL1 081542Z 00000KT 01/01 A3005 RMK A01 T00060006  RH  100%=      5-min Rain = 0
KFL1 081543Z 00000KT 01/01 A3005 RMK A01 T00060006  RH  100%=      5-min Rain = 0
KFL1 081544Z 00000KT 01/01 A3005 RMK A01 T00060006  RH  100%=      5-min Rain = 0
KFL1 081545Z 00000KT 01/01 A3005 RMK A01 T00060006  RH  100%=      5-min Rain = 0
KFL1 081546Z 00000KT 01/01 A3006 RMK A01 T00050005  RH  100%=      5-min Rain = 0
KFL1 081547Z 00000KT 01/01 A3006 RMK A01 T00060006  RH  100%=      5-min Rain = 0
KFL1 081548Z 00000KT 01/01 A3006 RMK A01 T00070007  RH  100%=      5-min Rain = 0
KFL1 081549Z 00000KT 01/01 A3006 RMK A01 T00060006  RH  100%=      5-min Rain = 0
KFL1 081550Z 00000KT 01/01 A3005 RMK A01 T00050005  RH  100%=      5-min Rain = 0
KFL1 081551Z 00000KT 01/01 A3005 RMK A01 T00070007  RH  100%=      5-min Rain = 0
KFL1 081552Z 00000KT 01/01 A3005 RMK A01 T00060006  RH  100%=      5-min Rain = 0
KFL1 081553Z 00000KT 01/01 A3005 RMK A01 T00070007  RH  100%=      5-min Rain = 0
KFL1 081554Z 00000KT 01/01 A3005 RMK A01 T00060006  RH  100%=      5-min Rain = 0
KFL1 081555Z 00000KT 01/01 A3005 RMK A01 T00060006  RH  100%=      5-min Rain = 0
KFL1 081556Z 00000KT 01/01 A3005 RMK A01 T00060006  RH  100%=      5-min Rain = 0
KFL1 081557Z 00000KT 01/01 A3005 RMK A01 T00060006  RH  100%=      5-min Rain = 0
KFL1 081558Z 00000KT 01/01 A3005 RMK A01 T00070007  RH  100%=      5-min Rain = 0
KFL1 081559Z 00000KT 01/01 A3005 RMK A01 T00060006  RH  100%=      5-min Rain = 0
KFL1 081600Z 00000KT 01/01 A3005 RMK A01 T00060006  RH  100%=      5-min Rain = 0
KFL1 081601Z 00000KT 01/01 A3005 RMK A01 T00070008  RH  100%=      5-min Rain = 0
KFL1 081602Z 00000KT 01/01 A3005 RMK A01 T00060006  RH  100%=      5-min Rain = 0
KFL1 081603Z 00000KT 01/01 A3005 RMK A01 T00070007  RH  100%=      5-min Rain = 0
KFL1 081604Z 00000KT 01/01 A3005 RMK A01 T00070007  RH  100%=      5-min Rain = 0
KFL1 081605Z 00000KT 01/01 A3005 RMK A01 T00070007  RH  100%=      5-min Rain = 0
KFL1 081606Z 00000KT 01/01 A3005 RMK A01 T00070007  RH  100%=      5-min Rain = 0
KFL1 081607Z 00000KT 01/01 A3005 RMK A01 T00060006  RH  100%=      5-min Rain = 0
KFL1 081608Z 00000KT 01/01 A3005 RMK A01 T00060006  RH  100%=      5-min Rain = 0
KFL1 081609Z 00000KT 01/01 A3005 RMK A01 T00060006  RH  100%=      5-min Rain = 0
KFL1 081610Z 00000KT 01/01 A3005 RMK A01 T00060006  RH  100%=      5-min Rain = 0
KFL1 081611Z 00000KT 01/01 A3005 RMK A01 T00050005  RH  100%=      5-min Rain = 0
KFL1 081612Z 00000KT 01/01 A3005 RMK A01 T00070007  RH  100%=      5-min Rain = 0
KFL1 081613Z 00000KT 01/01 A3005 RMK A01 T00060006  RH  100%=      5-min Rain = 0
KFL1 081614Z 00000KT 01/01 A3005 RMK A01 T00050005  RH  100%=      5-min Rain = 0
KFL1 081615Z 00000KT 01/01 A3005 RMK A01 T00060006  RH  100%=      5-min Rain = 0
KFL1 081616Z 00000KT 01/01 A3005 RMK A01 T00050005  RH  100%=      5-min Rain = 0
KFL1 081617Z 00000KT 01/01 A3005 RMK A01 T00050005  RH  100%=      5-min Rain = 0
KFL1 081618Z 00000KT 01/01 A3005 RMK A01 T00060006  RH  100%=      5-min Rain = 0
KFL1 081619Z 00000KT 01/01 A3005 RMK A01 T00060006  RH  100%=      5-min Rain = 0
KFL1 081620Z 00000KT 01/01 A3005 RMK A01 T00050005  RH  100%=      5-min Rain = 0
KFL1 081621Z 00000KT 01/01 A3005 RMK A01 T00050005  RH  100%=      5-min Rain = 0
KFL1 081622Z 00000KT 01/01 A3005 RMK A01 T00060006  RH  100%=      5-min Rain = 0
KFL1 081623Z 00000KT 01/01 A3005 RMK A01 T00060006  RH  100%=      5-min Rain = 0
KFL1 081624Z 00000KT 01/01 A3005 RMK A01 T00060006  RH  100%=      5-min Rain = 0
KFL1 081625Z 00000KT 01/01 A3005 RMK A01 T00060006  RH  100%=      5-min Rain = 0
KFL1 081626Z 00000KT 01/01 A3005 RMK A01 T00050005  RH  100%=      5-min Rain = 0
KFL1 081627Z 00000KT 01/01 A3005 RMK A01 T00060006  RH  100%=      5-min Rain = 0
KFL1 081628Z 00000KT 01/01 A3005 RMK A01 T00060006  RH  100%=      5-min Rain = 0
KFL1 081629Z 00000KT 01/01 A3005 RMK A01 T00060006  RH  100%=      5-min Rain = 0
KFL1 081630Z 00000KT 01/01 A3005 RMK A01 T00060006  RH  100%=      5-min Rain = 0
KFL1 081631Z 00000KT 01/01 A3005 RMK A01 T00060006  RH  100%=      5-min Rain = 0
KFL1 081632Z 00000KT 01/01 A3005 RMK A01 T00060006  RH  100%=      5-min Rain = 0
KFL1 081633Z 00000KT 01/01 A3005 RMK A01 T00060006  RH  100%=      5-min Rain = 0
KFL1 081634Z 27000KT 01/01 A3005 RMK A01 T00050006  RH  100%=      5-min Rain = 0
KFL1 081635Z 00000KT 01/01 A3005 RMK A01 T00060006  RH  100%=      5-min Rain = 0
KFL1 081636Z 00000KT 01/01 A3005 RMK A01 T00060006  RH  100%=      5-min Rain = 0
KFL1 081637Z 00000KT 01/01 A3005 RMK A01 T00070007  RH  100%=      5-min Rain = 0
KFL1 081638Z 00000KT 01/01 A3004 RMK A01 T00070007  RH  100%=      5-min Rain = 0
KFL1 081639Z 00000KT 01/01 A3004 RMK A01 T00080008  RH  100%=      5-min Rain = 0
KFL1 081640Z 00000KT 01/01 A3005 RMK A01 T00070007  RH  100%=      5-min Rain = 0
KFL1 081641Z 00000KT 01/01 A3005 RMK A01 T00070007  RH  100%=      5-min Rain = 0
KFL1 081642Z 00000KT 01/01 A3005 RMK A01 T00080008  RH  100%=      5-min Rain = 0
KFL1 081643Z 00000KT 01/01 A3005 RMK A01 T00080008  RH  100%=      5-min Rain = 0
KFL1 081644Z 00000KT 01/01 A3005 RMK A01 T00070007  RH  100%=      5-min Rain = 0
KFL1 081645Z 00000KT 01/01 A3005 RMK A01 T00080008  RH  100%=      5-min Rain = 0
KFL1 081646Z 00000KT 01/01 A3005 RMK A01 T00070007  RH  100%=      5-min Rain = 0
KFL1 081647Z 00000KT 01/01 A3005 RMK A01 T00070007  RH  100%=      5-min Rain = 0
KFL1 081648Z 00000KT 01/01 A3005 RMK A01 T00070007  RH  100%=      5-min Rain = 0
KFL1 081649Z 00000KT 01/01 A3005 RMK A01 T00090009  RH  100%=      5-min Rain = 0
KFL1 081650Z 00000KT 01/01 A3005 RMK A01 T00080008  RH  100%=      5-min Rain = 0
KFL1 081651Z 00000KT 01/01 A3005 RMK A01 T00070007  RH  100%=      5-min Rain = 0
KFL1 081652Z 00000KT 01/01 A3005 RMK A01 T00070007  RH  100%=      5-min Rain = 0
KFL1 081653Z 00000KT 01/01 A3005 RMK A01 T00090009  RH  100%=      5-min Rain = 0
KFL1 081654Z 00000KT 01/01 A3005 RMK A01 T00080008  RH  100%=      5-min Rain = 0
KFL1 081655Z 00000KT 01/01 A3004 RMK A01 T00080008  RH  100%=      5-min Rain = 0
KFL1 081656Z 00000KT 01/01 A3004 RMK A01 T00080008  RH  100%=      5-min Rain = 0
KFL1 081657Z 00000KT 01/01 A3004 RMK A01 T00080008  RH  100%=      5-min Rain = 0.01
KFL1 081658Z 00000KT 01/01 A3004 RMK A01 T00080008  RH  100%=      5-min Rain = 0
KFL1 081659Z 00000KT 01/01 A3004 RMK A01 T00080008  RH  100%=      5-min Rain = 0
KFL1 081700Z 00000KT 01/01 A3004 RMK A01 T00090009  RH  100%=      5-min Rain = 0
KFL1 081701Z 00000KT 01/01 A3004 RMK A01 T00070007  RH  100%=      5-min Rain = 0
KFL1 081702Z 00000KT 01/01 A3004 RMK A01 T00080008  RH  100%=      5-min Rain = 0
KFL1 081703Z 00000KT 01/01 A3004 RMK A01 T00080008  RH  100%=      5-min Rain = 0
KFL1 081704Z 00000KT 01/01 A3004 RMK A01 T00070007  RH  100%=      5-min Rain = 0
KFL1 081705Z 00000KT 01/01 A3004 RMK A01 T00070007  RH  100%=      5-min Rain = 0
KFL1 081706Z 00000KT 01/01 A3004 RMK A01 T00090009  RH  100%=      5-min Rain = 0
KFL1 081707Z 00000KT 01/01 A3004 RMK A01 T00090009  RH  100%=      5-min Rain = 0
KFL1 081708Z 00000KT 01/01 A3004 RMK A01 T00090009  RH  100%=      5-min Rain = 0
KFL1 081709Z 00000KT 01/01 A3004 RMK A01 T00080008  RH  100%=      5-min Rain = 0
KFL1 081710Z 00000KT 01/01 A3004 RMK A01 T00080008  RH  100%=      5-min Rain = 0
KFL1 081711Z 00000KT 01/01 A3004 RMK A01 T00080008  RH  100%=      5-min Rain = 0
KFL1 081712Z 00000KT 01/01 A3004 RMK A01 T00090009  RH  100%=      5-min Rain = 0
KFL1 081713Z 00000KT 01/01 A3004 RMK A01 T00080008  RH  100%=      5-min Rain = 0
KFL1 081714Z 00000KT 01/01 A3004 RMK A01 T00080008  RH  100%=      5-min Rain = 0
KFL1 081715Z 00000KT 01/01 A3004 RMK A01 T00080008  RH  100%=      5-min Rain = 0
KFL1 081716Z 00000KT 01/01 A3004 RMK A01 T00080008  RH  100%=      5-min Rain = 0
KFL1 081717Z 00000KT 01/01 A3005 RMK A01 T00070007  RH  100%=      5-min Rain = 0
KFL1 081718Z 00000KT 01/01 A3005 RMK A01 T00080008  RH  100%=      5-min Rain = 0
KFL1 081719Z 00000KT 01/01 A3005 RMK A01 T00090009  RH  100%=      5-min Rain = 0
KFL1 081720Z 00000KT 01/01 A3004 RMK A01 T00080008  RH  100%=      5-min Rain = 0
KFL1 081721Z 00000KT 01/01 A3004 RMK A01 T00080008  RH  100%=      5-min Rain = 0
KFL1 081722Z 00000KT 01/01 A3004 RMK A01 T00060006  RH  100%=      5-min Rain = 0
KFL1 081723Z 00000KT 01/01 A3004 RMK A01 T00060006  RH  100%=      5-min Rain = 0
KFL1 081724Z 00000KT 01/01 A3004 RMK A01 T00070007  RH  100%=      5-min Rain = 0
KFL1 081725Z 00000KT 01/01 A3004 RMK A01 T00070007  RH  100%=      5-min Rain = 0
KFL1 081726Z 00000KT 01/01 A3005 RMK A01 T00070007  RH  100%=      5-min Rain = 0
KFL1 081727Z 00000KT 01/01 A3005 RMK A01 T00070007  RH  100%=      5-min Rain = 0
KFL1 081728Z 00000KT 01/01 A3005 RMK A01 T00060006  RH  100%=      5-min Rain = 0
KFL1 081729Z 00000KT 01/01 A3005 RMK A01 T00060006  RH  100%=      5-min Rain = 0
KFL1 081730Z 00000KT 01/01 A3004 RMK A01 T00050005  RH  100%=      5-min Rain = 0
KFL1 081731Z 00000KT 01/01 A3004 RMK A01 T00060006  RH  100%=      5-min Rain = 0
KFL1 081732Z 00000KT 01/01 A3004 RMK A01 T00050005  RH  100%=      5-min Rain = 0
KFL1 081733Z 00000KT 01/01 A3004 RMK A01 T00060006  RH  100%=      5-min Rain = 0
KFL1 081734Z 00000KT 01/01 A3004 RMK A01 T00050005  RH  100%=      5-min Rain = 0
KFL1 081735Z 00000KT 01/01 A3004 RMK A01 T00060006  RH  100%=      5-min Rain = 0.01
KFL1 081736Z 00000KT 01/01 A3004 RMK A01 T00050005  RH  100%=      5-min Rain = 0
KFL1 081737Z 00000KT 01/01 A3004 RMK A01 T00050005  RH  100%=      5-min Rain = 0
KFL1 081738Z 00000KT 01/01 A3005 RMK A01 T00050005  RH  100%=      5-min Rain = 0
KFL1 081739Z 00000KT 01/01 A3005 RMK A01 T00050005  RH  100%=      5-min Rain = 0
KFL1 081740Z 00000KT 01/01 A3005 RMK A01 T00050005  RH  100%=      5-min Rain = 0
KFL1 081741Z 00000KT 01/01 A3004 RMK A01 T00050005  RH  100%=      5-min Rain = 0
KFL1 081742Z 00000KT 01/01 A3004 RMK A01 T00050005  RH  100%=      5-min Rain = 0
KFL1 081743Z 00000KT 01/01 A3004 RMK A01 T00060006  RH  100%=      5-min Rain = 0
KFL1 081744Z 00000KT 01/01 A3004 RMK A01 T00050005  RH  100%=      5-min Rain = 0
KFL1 081745Z 00000KT 01/01 A3004 RMK A01 T00050005  RH  100%=      5-min Rain = 0
KFL1 081746Z 00000KT 01/01 A3004 RMK A01 T00050005  RH  100%=      5-min Rain = 0
KFL1 081747Z 00000KT 01/01 A3004 RMK A01 T00060006  RH  100%=      5-min Rain = 0
KFL1 081748Z 00000KT 01/01 A3004 RMK A01 T00050005  RH  100%=      5-min Rain = 0
KFL1 081749Z 00000KT 01/01 A3004 RMK A01 T00060006  RH  100%=      5-min Rain = 0
KFL1 081750Z 00000KT 01/01 A3004 RMK A01 T00050005  RH  100%=      5-min Rain = 0
KFL1 081751Z 00000KT 01/01 A3004 RMK A01 T00050005  RH  100%=      5-min Rain = 0
KFL1 081752Z 00000KT 01/01 A3004 RMK A01 T00050005  RH  100%=      5-min Rain = 0
KFL1 081753Z 00000KT 01/01 A3004 RMK A01 T00050005  RH  100%=      5-min Rain = 0
KFL1 081754Z 00000KT 01/01 A3004 RMK A01 T00050005  RH  100%=      5-min Rain = 0
KFL1 081755Z 00000KT 00/00 A3004 RMK A01 T00040004  RH  100%=      5-min Rain = 0
KFL1 081756Z 00000KT 01/01 A3004 RMK A01 T00050005  RH  100%=      5-min Rain = 0
KFL1 081757Z 00000KT 00/00 A3004 RMK A01 T00040004  RH  100%=      5-min Rain = 0
KFL1 081758Z 00000KT 01/01 A3004 RMK A01 T00050005  RH  100%=      5-min Rain = 0.01
KFL1 081759Z 00000KT 01/01 A3004 RMK A01 T00060006  RH  100%=      5-min Rain = 0
KFL1 081800Z 00000KT 01/01 A3004 RMK A01 T00060006  RH  100%=      5-min Rain = 0
KFL1 081801Z 00000KT 01/01 A3004 RMK A01 T00070007  RH  100%=      5-min Rain = 0
KFL1 081802Z 00000KT 01/01 A3005 RMK A01 T00060006  RH  100%=      5-min Rain = 0
KFL1 081803Z 00000KT 01/01 A3005 RMK A01 T00060006  RH  100%=      5-min Rain = 0
KFL1 081804Z 00000KT 01/01 A3005 RMK A01 T00060006  RH  100%=      5-min Rain = 0
KFL1 081805Z 26003KT 01/01 A3004 RMK A01 T00070007  RH  100%=      5-min Rain = 0
KFL1 081806Z 27006KT 01/01 A3004 RMK A01 T00070007  RH  100%=      5-min Rain = 0
KFL1 081807Z 26005KT 01/01 A3004 RMK A01 T00070007  RH  100%=      5-min Rain = 0
KFL1 081808Z 26005KT 01/01 A3004 RMK A01 T00070007  RH  100%=      5-min Rain = 0
KFL1 081809Z 26006KT 01/01 A3004 RMK A01 T00060006  RH  100%=      5-min Rain = 0
KFL1 081810Z 26006KT 01/01 A3004 RMK A01 T00070007  RH  100%=      5-min Rain = 0
KFL1 081811Z 26007KT 01/01 A3004 RMK A01 T00060006  RH  100%=      5-min Rain = 0
KFL1 081812Z 26006KT 01/01 A3004 RMK A01 T00070007  RH  100%=      5-min Rain = 0
KFL1 081813Z 26006KT 01/01 A3004 RMK A01 T00060006  RH  100%=      5-min Rain = 0
KFL1 081814Z 26006KT 01/01 A3004 RMK A01 T00080008  RH  100%=      5-min Rain = 0
KFL1 081815Z 27007KT 01/01 A3003 RMK A01 T00070007  RH  100%=      5-min Rain = 0
KFL1 081816Z 26006KT 01/01 A3003 RMK A01 T00070007  RH  100%=      5-min Rain = 0
KFL1 081817Z 26007KT 01/01 A3003 RMK A01 T00070007  RH  100%=      5-min Rain = 0
KFL1 081818Z 26007KT 01/01 A3003 RMK A01 T00070007  RH  100%=      5-min Rain = 0
KFL1 081819Z 26006KT 01/01 A3003 RMK A01 T00080008  RH  100%=      5-min Rain = 0
KFL1 081820Z 27006KT 01/01 A3003 RMK A01 T00070007  RH  100%=      5-min Rain = 0
KFL1 081821Z 26006KT 01/01 A3003 RMK A01 T00080008  RH  100%=      5-min Rain = 0
KFL1 081822Z 26007KT 01/01 A3003 RMK A01 T00080008  RH  100%=      5-min Rain = 0.01
KFL1 081823Z 27007KT 01/01 A3003 RMK A01 T00070007  RH  100%=      5-min Rain = 0
KFL1 081824Z 26007KT 01/01 A3003 RMK A01 T00080008  RH  100%=      5-min Rain = 0
KFL1 081825Z 26006KT 01/01 A3003 RMK A01 T00080008  RH  100%=      5-min Rain = 0
KFL1 081826Z 26007KT 01/01 A3003 RMK A01 T00080008  RH  100%=      5-min Rain = 0
KFL1 081827Z 27006KT 01/01 A3003 RMK A01 T00080008  RH  100%=      5-min Rain = 0
KFL1 081828Z 27005KT 01/01 A3003 RMK A01 T00090009  RH  100%=      5-min Rain = 0
KFL1 081829Z 26006KT 01/01 A3003 RMK A01 T00070007  RH  100%=      5-min Rain = 0
KFL1 081830Z 27006KT 01/01 A3003 RMK A01 T00080008  RH  100%=      5-min Rain = 0
KFL1 081831Z 27005KT 01/01 A3002 RMK A01 T00080008  RH  100%=      5-min Rain = 0
KFL1 081832Z 27006KT 01/01 A3002 RMK A01 T00070007  RH  100%=      5-min Rain = 0
KFL1 081833Z 27006KT 01/01 A3002 RMK A01 T00080008  RH  100%=      5-min Rain = 0
KFL1 081834Z 27005KT 01/01 A3002 RMK A01 T00080008  RH  100%=      5-min Rain = 0
KFL1 081835Z 27006KT 01/01 A3002 RMK A01 T00090009  RH  100%=      5-min Rain = 0
KFL1 081836Z 27007KT 01/01 A3002 RMK A01 T00080008  RH  100%=      5-min Rain = 0.01
KFL1 081837Z 27005KT 01/01 A3002 RMK A01 T00080008  RH  100%=      5-min Rain = 0
KFL1 081838Z 27005KT 01/01 A3002 RMK A01 T00070007  RH  100%=      5-min Rain = 0
KFL1 081839Z 26006KT 01/01 A3002 RMK A01 T00090009  RH  100%=      5-min Rain = 0
KFL1 081840Z 27005KT 01/01 A3002 RMK A01 T00100010  RH  100%=      5-min Rain = 0
KFL1 081841Z 27005KT 01/01 A3002 RMK A01 T00080008  RH  100%=      5-min Rain = 0
KFL1 081842Z 27005KT 01/01 A3002 RMK A01 T00080008  RH  100%=      5-min Rain = 0
KFL1 081843Z 27005KT 01/01 A3002 RMK A01 T00080008  RH  100%=      5-min Rain = 0
KFL1 081844Z 27005KT 01/01 A3002 RMK A01 T00080008  RH  100%=      5-min Rain = 0
KFL1 081845Z 27005KT 01/01 A3002 RMK A01 T00090009  RH  100%=      5-min Rain = 0
KFL1 081846Z 27005KT 01/01 A3002 RMK A01 T00080008  RH  100%=      5-min Rain = 0
KFL1 081847Z 27005KT 01/01 A3002 RMK A01 T00090009  RH  100%=      5-min Rain = 0
KFL1 081848Z 27004KT 01/01 A3002 RMK A01 T00090009  RH  100%=      5-min Rain = 0
KFL1 081849Z 27004KT 01/01 A3002 RMK A01 T00090009  RH  100%=      5-min Rain = 0
KFL1 081850Z 27005KT 01/01 A3002 RMK A01 T00090009  RH  100%=      5-min Rain = 0
KFL1 081851Z 27004KT 01/01 A3001 RMK A01 T00090009  RH  100%=      5-min Rain = 0
KFL1 081852Z 27004KT 01/01 A3002 RMK A01 T00080008  RH  100%=      5-min Rain = 0
KFL1 081853Z 27004KT 01/01 A3002 RMK A01 T00080008  RH  100%=      5-min Rain = 0
KFL1 081854Z 27004KT 01/01 A3002 RMK A01 T00100010  RH  100%=      5-min Rain = 0.01
KFL1 081855Z 27004KT 01/01 A3001 RMK A01 T00090009  RH  100%=      5-min Rain = 0
KFL1 081856Z 27004KT 01/01 A3001 RMK A01 T00090009  RH  100%=      5-min Rain = 0
KFL1 081857Z 27004KT 01/01 A3001 RMK A01 T00100010  RH  100%=      5-min Rain = 0
KFL1 081858Z 26004KT 01/01 A3001 RMK A01 T00090009  RH  100%=      5-min Rain = 0
KFL1 081859Z 27004KT 01/01 A3001 RMK A01 T00100010  RH  100%=      5-min Rain = 0
KFL1 081900Z 26004KT 01/01 A3001 RMK A01 T00110011  RH  100%=      5-min Rain = 0
KFL1 081901Z 27004KT 01/01 A3001 RMK A01 T00110011  RH  100%=      5-min Rain = 0
KFL1 081902Z 27004KT 01/01 A3001 RMK A01 T00110011  RH  100%=      5-min Rain = 0.01
KFL1 081903Z 27004KT 01/01 A3001 RMK A01 T00100010  RH  100%=      5-min Rain = 0
KFL1 081904Z 27004KT 01/01 A30 RMK A01 T00110011  RH  100%=      5-min Rain = 0
KFL1 081905Z 27005KT 01/01 A30 RMK A01 T00110011  RH  100%=      5-min Rain = 0
KFL1 081906Z 27004KT 01/01 A30 RMK A01 T00110011  RH  100%=      5-min Rain = 0
KFL1 081907Z 27005KT 01/01 A30 RMK A01 T00110011  RH  100%=      5-min Rain = 0
KFL1 081908Z 27005KT 01/01 A30 RMK A01 T00120012  RH  100%=      5-min Rain = 0
KFL1 081909Z 27005KT 01/01 A30 RMK A01 T00110011  RH  100%=      5-min Rain = 0
KFL1 081910Z 27004KT 01/01 A30 RMK A01 T00120012  RH  100%=      5-min Rain = 0
KFL1 081911Z 27004KT 01/01 A30 RMK A01 T00110011  RH  100%=      5-min Rain = 0
KFL1 081912Z 27005KT 01/01 A30 RMK A01 T00110011  RH  100%=      5-min Rain = 0
KFL1 081913Z 26004KT 01/01 A30 RMK A01 T00110011  RH  100%=      5-min Rain = 0
KFL1 081914Z 26005KT 01/01 A30 RMK A01 T00100010  RH  100%=      5-min Rain = 0
KFL1 081915Z 26004KT 01/01 A30 RMK A01 T00110011  RH  100%=      5-min Rain = 0.01
KFL1 081916Z 26004KT 01/01 A30 RMK A01 T00110011  RH  100%=      5-min Rain = 0
KFL1 081917Z 26005KT 01/01 A30 RMK A01 T00110011  RH  100%=      5-min Rain = 0
KFL1 081918Z 25004KT 01/01 A30 RMK A01 T00120012  RH  100%=      5-min Rain = 0
KFL1 081919Z 25004KT 01/01 A30 RMK A01 T00110011  RH  100%=      5-min Rain = 0
KFL1 081920Z 25005KT 01/01 A30 RMK A01 T00110011  RH  100%=      5-min Rain = 0
KFL1 081921Z 25005KT 01/01 A30 RMK A01 T00110011  RH  100%=      5-min Rain = 0
KFL1 081922Z 25005KT 01/01 A30 RMK A01 T00090009  RH  100%=      5-min Rain = 0.01
KFL1 081923Z 25005KT 01/01 A30 RMK A01 T00090009  RH  100%=      5-min Rain = 0
KFL1 081924Z 25005KT 01/01 A30 RMK A01 T00090009  RH  100%=      5-min Rain = 0
KFL1 081925Z 25005KT 01/01 A30 RMK A01 T00100010  RH  100%=      5-min Rain = 0
KFL1 081926Z 24005KT 01/01 A30 RMK A01 T00080008  RH  100%=      5-min Rain = 0
KFL1 081927Z 25005KT 01/01 A30 RMK A01 T00090009  RH  100%=      5-min Rain = 0
KFL1 081928Z 25006KT 01/01 A30 RMK A01 T00090009  RH  100%=      5-min Rain = 0
KFL1 081929Z 25005KT 01/01 A30 RMK A01 T00090009  RH  100%=      5-min Rain = 0
KFL1 081930Z 25005KT 01/01 A30 RMK A01 T00080008  RH  100%=      5-min Rain = 0
KFL1 081931Z 26005KT 01/01 A30 RMK A01 T00090009  RH  100%=      5-min Rain = 0
KFL1 081932Z 26005KT 01/01 A2999 RMK A01 T00080008  RH  100%=      5-min Rain = 0
KFL1 081933Z 26004KT 01/01 A2999 RMK A01 T00090009  RH  100%=      5-min Rain = 0
KFL1 081934Z 26004KT 01/01 A2999 RMK A01 T00080008  RH  100%=      5-min Rain = 0.01
KFL1 081935Z 27004KT 01/01 A2999 RMK A01 T00080008  RH  100%=      5-min Rain = 0
KFL1 081936Z 27005KT 01/01 A2999 RMK A01 T00080008  RH  100%=      5-min Rain = 0
KFL1 081937Z 27005KT 01/01 A2999 RMK A01 T00080008  RH  100%=      5-min Rain = 0
KFL1 081938Z 27005KT 01/01 A2999 RMK A01 T00080008  RH  100%=      5-min Rain = 0
KFL1 081939Z 27005KT 01/01 A2999 RMK A01 T00080008  RH  100%=      5-min Rain = 0
KFL1 081940Z 27004KT 01/01 A2999 RMK A01 T00090009  RH  100%=      5-min Rain = 0
KFL1 081941Z 27004KT 01/01 A2999 RMK A01 T00070007  RH  100%=      5-min Rain = 0.01
KFL1 081942Z 27004KT 01/01 A2998 RMK A01 T00090009  RH  100%=      5-min Rain = 0
KFL1 081943Z 26004KT 01/01 A2998 RMK A01 T00090009  RH  100%=      5-min Rain = 0
KFL1 081944Z 26005KT 01/01 A2998 RMK A01 T00080008  RH  100%=      5-min Rain = 0
KFL1 081945Z 27004KT 01/01 A2998 RMK A01 T00080008  RH  100%=      5-min Rain = 0
KFL1 081946Z 27004KT 01/01 A2998 RMK A01 T00090009  RH  100%=      5-min Rain = 0
KFL1 081947Z 27004KT 01/01 A2998 RMK A01 T00100010  RH  100%=      5-min Rain = 0
KFL1 081948Z 27004KT 01/01 A2998 RMK A01 T00100010  RH  100%=      5-min Rain = 0
KFL1 081949Z 27003KT 01/01 A2998 RMK A01 T00100010  RH  100%=      5-min Rain = 0
KFL1 081950Z 27004KT 01/01 A2998 RMK A01 T00090009  RH  100%=      5-min Rain = 0
KFL1 081951Z 26004KT 01/01 A2998 RMK A01 T00100010  RH  100%=      5-min Rain = 0.01
KFL1 081952Z 26005KT 01/01 A2998 RMK A01 T00090009  RH  100%=      5-min Rain = 0
KFL1 081953Z 26004KT 01/01 A2998 RMK A01 T00100010  RH  100%=      5-min Rain = 0
KFL1 081954Z 25004KT 01/01 A2998 RMK A01 T00100010  RH  100%=      5-min Rain = 0
KFL1 081955Z 25004KT 01/01 A2998 RMK A01 T00090009  RH  100%=      5-min Rain = 0
KFL1 081956Z 24004KT 01/01 A2998 RMK A01 T00090009  RH  100%=      5-min Rain = 0
KFL1 081957Z 24004KT 01/01 A2998 RMK A01 T00080008  RH  100%=      5-min Rain = 0.01
KFL1 081958Z 24004KT 01/01 A2998 RMK A01 T00080008  RH  100%=      5-min Rain = 0
KFL1 081959Z 24005KT 01/01 A2998 RMK A01 T00090009  RH  100%=      5-min Rain = 0
KFL1 082000Z 23004KT 01/01 A2998 RMK A01 T00090009  RH  100%=      5-min Rain = 0
KFL1 082001Z 23005KT 01/01 A2998 RMK A01 T00090009  RH  100%=      5-min Rain = 0
KFL1 082002Z 23005KT 01/01 A2998 RMK A01 T00080008  RH  100%=      5-min Rain = 0
KFL1 082003Z 23005KT 01/01 A2998 RMK A01 T00080008  RH  100%=      5-min Rain = 0
KFL1 082004Z 23003KT 01/01 A2998 RMK A01 T00090009  RH  100%=      5-min Rain = 0
KFL1 082005Z 22004KT 01/01 A2998 RMK A01 T00090009  RH  100%=      5-min Rain = 0
KFL1 082006Z 23005KT 01/01 A2998 RMK A01 T00080008  RH  100%=      5-min Rain = 0
KFL1 082007Z 23006KT 01/01 A2998 RMK A01 T00080008  RH  100%=      5-min Rain = 0
KFL1 082008Z 23006KT 01/01 A2998 RMK A01 T00070007  RH  100%=      5-min Rain = 0.01
KFL1 082009Z 23006KT 01/01 A2998 RMK A01 T00070007  RH  100%=      5-min Rain = 0
KFL1 082010Z 23006KT 01/01 A2998 RMK A01 T00070007  RH  100%=      5-min Rain = 0
KFL1 082011Z 23006KT 01/01 A2998 RMK A01 T00070007  RH  100%=      5-min Rain = 0
KFL1 082012Z 23006KT 01/01 A2998 RMK A01 T00070007  RH  100%=      5-min Rain = 0
KFL1 082013Z 24004KT 01/01 A2998 RMK A01 T00080008  RH  100%=      5-min Rain = 0
KFL1 082014Z 25004KT 01/01 A2998 RMK A01 T00070007  RH  100%=      5-min Rain = 0
KFL1 082015Z 26005KT 01/01 A2998 RMK A01 T00070007  RH  100%=      5-min Rain = 0
KFL1 082016Z 27005KT 01/01 A2998 RMK A01 T00070007  RH  100%=      5-min Rain = 0
KFL1 082017Z 27005KT 01/01 A2998 RMK A01 T00070007  RH  100%=      5-min Rain = 0.01
KFL1 082018Z 28005KT 01/01 A2998 RMK A01 T00070007  RH  100%=      5-min Rain = 0
KFL1 082019Z 27006KT 01/01 A2998 RMK A01 T00070007  RH  100%=      5-min Rain = 0
KFL1 082020Z 26005KT 01/01 A2998 RMK A01 T00080008  RH  100%=      5-min Rain = 0
KFL1 082021Z 27006KT 01/01 A2998 RMK A01 T00080008  RH  100%=      5-min Rain = 0
KFL1 082022Z 27006KT 01/01 A2998 RMK A01 T00070007  RH  100%=      5-min Rain = 0
KFL1 082023Z 26006KT 01/01 A2998 RMK A01 T00070007  RH  100%=      5-min Rain = 0
KFL1 082024Z 26007KT 01/01 A2998 RMK A01 T00070007  RH  100%=      5-min Rain = 0
KFL1 082025Z 25006KT 01/01 A2998 RMK A01 T00080008  RH  100%=      5-min Rain = 0
KFL1 082026Z 25005KT 01/01 A2998 RMK A01 T00080008  RH  100%=      5-min Rain = 0
KFL1 082027Z 24005KT 01/01 A2998 RMK A01 T00080008  RH  100%=      5-min Rain = 0
KFL1 082028Z 25006KT 01/01 A2998 RMK A01 T00080008  RH  100%=      5-min Rain = 0
KFL1 082029Z 24004KT 01/01 A2997 RMK A01 T00080008  RH  100%=      5-min Rain = 0
KFL1 082030Z 25005KT 01/01 A2997 RMK A01 T00090009  RH  100%=      5-min Rain = 0
KFL1 082031Z 25004KT 01/01 A2997 RMK A01 T00080008  RH  100%=      5-min Rain = 0.01
KFL1 082032Z 26005KT 01/01 A2997 RMK A01 T00090009  RH  100%=      5-min Rain = 0
KFL1 082033Z 26005KT 01/01 A2997 RMK A01 T00090009  RH  100%=      5-min Rain = 0
KFL1 082034Z 27005KT 01/01 A2997 RMK A01 T00090009  RH  100%=      5-min Rain = 0
KFL1 082035Z 27005KT 01/01 A2997 RMK A01 T00100010  RH  100%=      5-min Rain = 0
KFL1 082036Z 27005KT 01/01 A2997 RMK A01 T00080008  RH  100%=      5-min Rain = 0
KFL1 082037Z 25006KT 01/01 A2997 RMK A01 T00090009  RH  100%=      5-min Rain = 0
KFL1 082038Z 24005KT 01/01 A2997 RMK A01 T00090009  RH  100%=      5-min Rain = 0
KFL1 082039Z 22005KT 01/01 A2997 RMK A01 T00100010  RH  100%=      5-min Rain = 0.01
KFL1 082040Z 23005KT 01/01 A2997 RMK A01 T00090009  RH  100%=      5-min Rain = 0
KFL1 082041Z 24005KT 01/01 A2997 RMK A01 T00090009  RH  100%=      5-min Rain = 0
KFL1 082042Z 23005KT 01/01 A2997 RMK A01 T00090009  RH  100%=      5-min Rain = 0
KFL1 082043Z 24005KT 01/01 A2997 RMK A01 T00090009  RH  100%=      5-min Rain = 0
KFL1 082044Z 25005KT 01/01 A2997 RMK A01 T00070007  RH  100%=      5-min Rain = 0
KFL1 082045Z 25006KT 01/01 A2997 RMK A01 T00070007  RH  100%=      5-min Rain = 0
KFL1 082046Z 26004KT 01/01 A2997 RMK A01 T00080008  RH  100%=      5-min Rain = 0
KFL1 082047Z 26004KT 01/01 A2997 RMK A01 T00070007  RH  100%=      5-min Rain = 0
KFL1 082048Z 25005KT 01/01 A2997 RMK A01 T00070007  RH  100%=      5-min Rain = 0
KFL1 082049Z 25004KT 01/01 A2997 RMK A01 T00080008  RH  100%=      5-min Rain = 0
KFL1 082050Z 24005KT 01/01 A2997 RMK A01 T00070007  RH  100%=      5-min Rain = 0.01
KFL1 082051Z 24004KT 01/01 A2997 RMK A01 T00070007  RH  100%=      5-min Rain = 0
KFL1 082052Z 25005KT 01/01 A2997 RMK A01 T00070007  RH  100%=      5-min Rain = 0
KFL1 082053Z 26006KT 01/01 A2997 RMK A01 T00070007  RH  100%=      5-min Rain = 0
KFL1 082054Z 26007KT 01/01 A2997 RMK A01 T00090009  RH  100%=      5-min Rain = 0
KFL1 082055Z 26006KT 01/01 A2997 RMK A01 T00070007  RH  100%=      5-min Rain = 0
KFL1 082056Z 25006KT 01/01 A2997 RMK A01 T00080008  RH  100%=      5-min Rain = 0
KFL1 082057Z 25004KT 01/01 A2997 RMK A01 T00090009  RH  100%=      5-min Rain = 0.01
KFL1 082058Z 24004KT 01/01 A2997 RMK A01 T00080008  RH  100%=      5-min Rain = 0
KFL1 082059Z 23005KT 01/01 A2997 RMK A01 T00090009  RH  100%=      5-min Rain = 0
KFL1 082100Z 25004KT 01/01 A2997 RMK A01 T00080008  RH  100%=      5-min Rain = 0
KFL1 082101Z 26006KT 01/01 A2997 RMK A01 T00080008  RH  100%=      5-min Rain = 0
KFL1 082102Z 25006KT 01/01 A2997 RMK A01 T00080008  RH  100%=      5-min Rain = 0
KFL1 082103Z 24005KT 01/01 A2997 RMK A01 T00080008  RH  100%=      5-min Rain = 0
KFL1 082104Z 25005KT 01/01 A2997 RMK A01 T00080009  RH  100%=      5-min Rain = 0
KFL1 082105Z 25005KT 01/01 A2997 RMK A01 T00080008  RH  100%=      5-min Rain = 0
KFL1 082106Z 25005KT 01/01 A2997 RMK A01 T00090009  RH  100%=      5-min Rain = 0.01
KFL1 082107Z 25005KT 01/01 A2996 RMK A01 T00090009  RH  100%=      5-min Rain = 0
KFL1 082108Z 24005KT 01/01 A2996 RMK A01 T00090009  RH  100%=      5-min Rain = 0
KFL1 082109Z 24004KT 01/01 A2996 RMK A01 T00080008  RH  100%=      5-min Rain = 0
KFL1 082110Z 25006KT 01/01 A2996 RMK A01 T00090009  RH  100%=      5-min Rain = 0
KFL1 082111Z 27006KT 01/01 A2997 RMK A01 T00090009  RH  100%=      5-min Rain = 0.01
KFL1 082112Z 29007KT 01/01 A2997 RMK A01 T00080008  RH  100%=      5-min Rain = 0
KFL1 082113Z 29006KT 01/01 A2997 RMK A01 T00070007  RH  100%=      5-min Rain = 0
KFL1 082114Z 30007KT 01/01 A2997 RMK A01 T00070007  RH  100%=      5-min Rain = 0
KFL1 082115Z 29008KT 01/01 A2997 RMK A01 T00070007  RH  100%=      5-min Rain = 0
KFL1 082116Z 28007KT 01/01 A2997 RMK A01 T00070007  RH  100%=      5-min Rain = 0
KFL1 082117Z 28007KT 01/01 A2997 RMK A01 T00070007  RH  100%=      5-min Rain = 0
KFL1 082118Z 27006KT 01/01 A2997 RMK A01 T00080008  RH  100%=      5-min Rain = 0
KFL1 082119Z 27005KT 01/01 A2997 RMK A01 T00090009  RH  100%=      5-min Rain = 0
KFL1 082120Z 27006KT 01/01 A2996 RMK A01 T00080008  RH  100%=      5-min Rain = 0
KFL1 082121Z 26005KT 01/01 A2996 RMK A01 T00080008  RH  100%=      5-min Rain = 0
KFL1 082122Z 26005KT 01/01 A2996 RMK A01 T00080008  RH  100%=      5-min Rain = 0
KFL1 082123Z 26006KT 01/01 A2996 RMK A01 T00090009  RH  100%=      5-min Rain = 0
KFL1 082124Z 25006KT 01/01 A2996 RMK A01 T00090009  RH  100%=      5-min Rain = 0.01
KFL1 082125Z 25007KT 01/01 A2997 RMK A01 T00100010  RH  100%=      5-min Rain = 0
KFL1 082126Z 25007KT 01/01 A2997 RMK A01 T00090009  RH  100%=      5-min Rain = 0
KFL1 082127Z 25006KT 01/01 A2997 RMK A01 T00110011  RH  100%=      5-min Rain = 0
KFL1 082128Z 26007KT 01/01 A2997 RMK A01 T00100010  RH  100%=      5-min Rain = 0
KFL1 082129Z 26007KT 01/01 A2997 RMK A01 T00100010  RH  100%=      5-min Rain = 0
KFL1 082130Z 26007KT 01/01 A2997 RMK A01 T00100011  RH  100%=      5-min Rain = 0
KFL1 082131Z 26006KT 01/01 A2997 RMK A01 T00100010  RH  100%=      5-min Rain = 0.01
KFL1 082132Z 26006KT 01/01 A2997 RMK A01 T00110011  RH  100%=      5-min Rain = 0
KFL1 082133Z 26008KT 01/01 A2997 RMK A01 T00100010  RH  100%=      5-min Rain = 0
KFL1 082134Z 25006KT 01/01 A2997 RMK A01 T00100010  RH  100%=      5-min Rain = 0
KFL1 082135Z 26006KT 01/01 A2997 RMK A01 T00110011  RH  100%=      5-min Rain = 0
KFL1 082136Z 26008KT 01/01 A2997 RMK A01 T00110011  RH  100%=      5-min Rain = 0
KFL1 082137Z 26006KT 01/01 A2997 RMK A01 T00110011  RH  100%=      5-min Rain = 0
KFL1 082138Z 26005KT 01/01 A2996 RMK A01 T00120012  RH  100%=      5-min Rain = 0
KFL1 082139Z 26006KT 01/01 A2996 RMK A01 T00120012  RH  100%=      5-min Rain = 0.01
KFL1 082140Z 26006KT 01/01 A2996 RMK A01 T00110011  RH  100%=      5-min Rain = 0
KFL1 082141Z 26006KT 01/01 A2996 RMK A01 T00120012  RH  100%=      5-min Rain = 0
KFL1 082142Z 26005KT 01/01 A2996 RMK A01 T00120012  RH  100%=      5-min Rain = 0
KFL1 082143Z 27005KT 01/01 A2996 RMK A01 T00120012  RH  100%=      5-min Rain = 0.01
KFL1 082144Z 27005KT 01/01 A2996 RMK A01 T00120012  RH  100%=      5-min Rain = 0
KFL1 082145Z 26006KT 01/01 A2996 RMK A01 T00120012  RH  100%=      5-min Rain = 0
KFL1 082146Z 26005KT 01/01 A2996 RMK A01 T00130013  RH  100%=      5-min Rain = 0
KFL1 082147Z 26004KT 01/01 A2996 RMK A01 T00120012  RH  100%=      5-min Rain = 0
KFL1 082148Z 26005KT 01/01 A2996 RMK A01 T00120012  RH  100%=      5-min Rain = 0
KFL1 082149Z 26004KT 01/01 A2996 RMK A01 T00120012  RH  100%=      5-min Rain = 0
KFL1 082150Z 25005KT 01/01 A2996 RMK A01 T00120012  RH  100%=      5-min Rain = 0.01
KFL1 082151Z 25005KT 01/01 A2996 RMK A01 T00120012  RH  100%=      5-min Rain = 0
KFL1 082152Z 26005KT 01/01 A2996 RMK A01 T00120013  RH  100%=      5-min Rain = 0
KFL1 082153Z 25006KT 01/01 A2996 RMK A01 T00130013  RH  100%=      5-min Rain = 0
KFL1 082154Z 25005KT 01/01 A2996 RMK A01 T00120012  RH  100%=      5-min Rain = 0
KFL1 082155Z 25006KT 01/01 A2996 RMK A01 T00120012  RH  100%=      5-min Rain = 0.01
KFL1 082156Z 24006KT 01/01 A2996 RMK A01 T00120012  RH  100%=      5-min Rain = 0
KFL1 082157Z 25006KT 01/01 A2996 RMK A01 T00120012  RH  100%=      5-min Rain = 0
KFL1 082158Z 25006KT 01/01 A2996 RMK A01 T00130013  RH  100%=      5-min Rain = 0
KFL1 082159Z 26006KT 01/01 A2995 RMK A01 T00120012  RH  100%=      5-min Rain = 0
KFL1 082200Z 28010G17KT 01/01 A2995 RMK A01 T00100010  RH  100%=      5-min Rain = 0
KFL1 082201Z 27010KT 01/01 A2995 RMK A01 T00110011  RH  100%=      5-min Rain = 0
KFL1 082202Z 27011KT 01/01 A2995 RMK A01 T00110011  RH  100%=      5-min Rain = 0
KFL1 082203Z 27011KT 01/01 A2995 RMK A01 T00110011  RH  100%=      5-min Rain = 0.01
KFL1 082204Z 28009KT 01/01 A2995 RMK A01 T00110011  RH  100%=      5-min Rain = 0
KFL1 082205Z 28008KT 01/01 A2995 RMK A01 T00120012  RH  100%=      5-min Rain = 0
KFL1 082206Z 27010KT 01/01 A2995 RMK A01 T00130013  RH  100%=      5-min Rain = 0
KFL1 082207Z 28008KT 01/01 A2995 RMK A01 T00130013  RH  100%=      5-min Rain = 0
KFL1 082208Z 28007KT 01/01 A2995 RMK A01 T00130013  RH  100%=      5-min Rain = 0
KFL1 082209Z 27007KT 01/01 A2995 RMK A01 T00120012  RH  100%=      5-min Rain = 0.01
KFL1 082210Z 27007KT 01/01 A2995 RMK A01 T00130013  RH  100%=      5-min Rain = 0
KFL1 082211Z 27008KT 01/01 A2995 RMK A01 T00130013  RH  100%=      5-min Rain = 0
KFL1 082212Z 27007KT 01/01 A2995 RMK A01 T00130013  RH  100%=      5-min Rain = 0
KFL1 082213Z 27007KT 01/01 A2995 RMK A01 T00120012  RH  100%=      5-min Rain = 0
KFL1 082214Z 27007KT 01/01 A2995 RMK A01 T00140014  RH  100%=      5-min Rain = 0
KFL1 082215Z 28006KT 01/01 A2995 RMK A01 T00130013  RH  100%=      5-min Rain = 0
KFL1 082216Z 28007KT 01/01 A2995 RMK A01 T00130013  RH  100%=      5-min Rain = 0
KFL1 082217Z 28007KT 01/01 A2995 RMK A01 T00140014  RH  100%=      5-min Rain = 0.01
KFL1 082218Z 28006KT 01/01 A2995 RMK A01 T00140014  RH  100%=      5-min Rain = 0
KFL1 082219Z 27005KT 01/01 A2995 RMK A01 T00140014  RH  100%=      5-min Rain = 0
KFL1 082220Z 27006KT 01/01 A2995 RMK A01 T00140014  RH  100%=      5-min Rain = 0
KFL1 082221Z 27006KT 01/01 A2995 RMK A01 T00140014  RH  100%=      5-min Rain = 0
KFL1 082222Z 27006KT 01/01 A2995 RMK A01 T00140014  RH  100%=      5-min Rain = 0
KFL1 082223Z 27007KT 02/02 A2995 RMK A01 T00150015  RH  100%=      5-min Rain = 0.01
KFL1 082224Z 27006KT 01/01 A2995 RMK A01 T00130013  RH  100%=      5-min Rain = 0
KFL1 082225Z 28006KT 01/01 A2995 RMK A01 T00140014  RH  100%=      5-min Rain = 0
KFL1 082226Z 28006KT 01/01 A2995 RMK A01 T00130013  RH  100%=      5-min Rain = 0
KFL1 082227Z 28007KT 01/01 A2994 RMK A01 T00130013  RH  100%=      5-min Rain = 0
KFL1 082228Z 27006KT 01/01 A2994 RMK A01 T00140014  RH  100%=      5-min Rain = 0
KFL1 082229Z 28006KT 02/02 A2994 RMK A01 T00150015  RH  100%=      5-min Rain = 0
KFL1 082230Z 28005KT 01/01 A2994 RMK A01 T00130013  RH  100%=      5-min Rain = 0
KFL1 082231Z 27005KT 01/01 A2994 RMK A01 T00130013  RH  100%=      5-min Rain = 0
KFL1 082232Z 27005KT 01/01 A2994 RMK A01 T00130013  RH  100%=      5-min Rain = 0.01
KFL1 082233Z 28004KT 01/01 A2994 RMK A01 T00130013  RH  100%=      5-min Rain = 0
KFL1 082234Z 28004KT 01/01 A2994 RMK A01 T00130013  RH  100%=      5-min Rain = 0
KFL1 082235Z 26004KT 01/01 A2994 RMK A01 T00120012  RH  100%=      5-min Rain = 0
KFL1 082236Z 26004KT 01/01 A2994 RMK A01 T00110011  RH  100%=      5-min Rain = 0
KFL1 082237Z 26006KT 01/01 A2994 RMK A01 T00120012  RH  100%=      5-min Rain = 0
KFL1 082238Z 26006KT 01/01 A2994 RMK A01 T00120012  RH  100%=      5-min Rain = 0
KFL1 082239Z 26005KT 01/01 A2994 RMK A01 T00110011  RH  100%=      5-min Rain = 0
KFL1 082240Z 26005KT 01/01 A2995 RMK A01 T00110011  RH  100%=      5-min Rain = 0
KFL1 082241Z 26007KT 01/01 A2995 RMK A01 T00110011  RH  100%=      5-min Rain = 0
KFL1 082242Z 27007KT 01/01 A2995 RMK A01 T00110011  RH  100%=      5-min Rain = 0
KFL1 082243Z 27006KT 01/01 A2995 RMK A01 T00100010  RH  100%=      5-min Rain = 0.01
KFL1 082244Z 26007KT 01/01 A2995 RMK A01 T00090009  RH  100%=      5-min Rain = 0
KFL1 082245Z 25006KT 01/01 A2995 RMK A01 T00100011  RH  100%=      5-min Rain = 0
KFL1 082246Z 26007KT 01/01 A2995 RMK A01 T00090009  RH  100%=      5-min Rain = 0
KFL1 082247Z 25007KT 01/01 A2995 RMK A01 T00100010  RH  100%=      5-min Rain = 0
KFL1 082248Z 25007KT 01/01 A2995 RMK A01 T00080008  RH  100%=      5-min Rain = 0
KFL1 082249Z 24007KT 01/01 A2995 RMK A01 T00090009  RH  100%=      5-min Rain = 0
KFL1 082250Z 25008KT 01/01 A2995 RMK A01 T00090009  RH  100%=      5-min Rain = 0
KFL1 082251Z 26010KT 01/01 A2995 RMK A01 T00080008  RH  100%=      5-min Rain = 0
KFL1 082252Z 27010KT 01/01 A2995 RMK A01 T00080008  RH  100%=      5-min Rain = 0
KFL1 082253Z 26010KT 01/01 A2995 RMK A01 T00080008  RH  100%=      5-min Rain = 0
KFL1 082254Z 26012KT 01/01 A2995 RMK A01 T00080008  RH  100%=      5-min Rain = 0
KFL1 082255Z 27013KT 01/01 A2994 RMK A01 T00080008  RH  100%=      5-min Rain = 0
KFL1 082256Z 27013KT 01/01 A2995 RMK A01 T00080008  RH  100%=      5-min Rain = 0
KFL1 082257Z 26013G20KT 01/01 A2995 RMK A01 T00070007  RH  100%=      5-min Rain = 0
KFL1 082258Z 26018KT 01/01 A2994 RMK A01 T00060006  RH  100%=      5-min Rain = 0
KFL1 082259Z 25015KT 01/01 A2994 RMK A01 T00070007  RH  100%=      5-min Rain = 0
KFL1 082300Z 26012KT 01/01 A2994 RMK A01 T00060006  RH  100%=      5-min Rain = 0
KFL1 082301Z 25010KT 01/01 A2994 RMK A01 T00070007  RH  100%=      5-min Rain = 0
KFL1 082302Z 26012KT 01/01 A2994 RMK A01 T00060006  RH  100%=      5-min Rain = 0
KFL1 082303Z 26010KT 01/01 A2994 RMK A01 T00060006  RH  100%=      5-min Rain = 0
KFL1 082304Z 26010KT 01/01 A2994 RMK A01 T00050005  RH  100%=      5-min Rain = 0
KFL1 082305Z 26011KT 01/01 A2994 RMK A01 T00050005  RH  100%=      5-min Rain = 0
KFL1 082306Z 27010KT 01/01 A2994 RMK A01 T00050005  RH  100%=      5-min Rain = 0
KFL1 082307Z 27011KT 01/01 A2994 RMK A01 T00060006  RH  100%=      5-min Rain = 0
KFL1 082308Z 28013KT 01/01 A2994 RMK A01 T00050005  RH  100%=      5-min Rain = 0
KFL1 082309Z 27013KT 01/01 A2994 RMK A01 T00050005  RH  100%=      5-min Rain = 0
KFL1 082310Z 27009KT 00/00 A2994 RMK A01 T00040004  RH  100%=      5-min Rain = 0
KFL1 082311Z 28011KT 00/00 A2993 RMK A01 T00040004  RH  100%=      5-min Rain = 0
KFL1 082312Z 28011KT 00/00 A2994 RMK A01 T00040004  RH  100%=      5-min Rain = 0
KFL1 082313Z 28011KT 01/01 A2994 RMK A01 T00060006  RH  100%=      5-min Rain = 0
KFL1 082314Z 28010KT 01/01 A2994 RMK A01 T00060006  RH  100%=      5-min Rain = 0
KFL1 082315Z 27011KT 01/01 A2994 RMK A01 T00050005  RH  100%=      5-min Rain = 0.01
KFL1 082316Z 27011KT 01/01 A2994 RMK A01 T00050005  RH  100%=      5-min Rain = 0
KFL1 082317Z 27011KT 01/01 A2994 RMK A01 T00050005  RH  100%=      5-min Rain = 0
KFL1 082318Z 26010KT 01/01 A2994 RMK A01 T00050005  RH  100%=      5-min Rain = 0
KFL1 082319Z 27009KT 01/01 A2994 RMK A01 T00050005  RH  100%=      5-min Rain = 0
KFL1 082320Z 27010KT 00/00 A2994 RMK A01 T00040004  RH  100%=      5-min Rain = 0
KFL1 082321Z 27009KT 01/01 A2994 RMK A01 T00060006  RH  100%=      5-min Rain = 0
KFL1 082322Z 28008KT 01/01 A2994 RMK A01 T00050005  RH  100%=      5-min Rain = 0
KFL1 082323Z 28008KT 01/01 A2994 RMK A01 T00050005  RH  100%=      5-min Rain = 0
KFL1 082324Z 28008KT 01/01 A2994 RMK A01 T00050005  RH  100%=      5-min Rain = 0
KFL1 082325Z 28009KT 01/01 A2994 RMK A01 T00050005  RH  100%=      5-min Rain = 0
KFL1 082326Z 29010KT 01/01 A2994 RMK A01 T00060006  RH  100%=      5-min Rain = 0
KFL1 082327Z 29011KT 01/01 A2994 RMK A01 T00060006  RH  100%=      5-min Rain = 0
KFL1 082328Z 29011KT 00/00 A2994 RMK A01 T00040004  RH  100%=      5-min Rain = 0
KFL1 082329Z 29011KT 00/00 A2995 RMK A01 T00040004  RH  100%=      5-min Rain = 0
KFL1 082330Z 29011KT 01/01 A2994 RMK A01 T00060006  RH  100%=      5-min Rain = 0
KFL1 082331Z 29010KT 01/01 A2994 RMK A01 T00060006  RH  100%=      5-min Rain = 0
KFL1 082332Z 29010KT 01/01 A2994 RMK A01 T00070007  RH  100%=      5-min Rain = 0
KFL1 082333Z 29011KT 01/01 A2995 RMK A01 T00060006  RH  100%=      5-min Rain = 0
KFL1 082334Z 29010KT 01/01 A2995 RMK A01 T00060006  RH  100%=      5-min Rain = 0
KFL1 082335Z 29009KT 01/01 A2995 RMK A01 T00070007  RH  100%=      5-min Rain = 0
KFL1 082336Z 29008KT 01/01 A2995 RMK A01 T00060006  RH  100%=      5-min Rain = 0
KFL1 082337Z 29009KT 01/01 A2995 RMK A01 T00060006  RH  100%=      5-min Rain = 0
KFL1 082338Z 28008KT 01/01 A2995 RMK A01 T00060006  RH  100%=      5-min Rain = 0
KFL1 082339Z 28008KT 01/01 A2995 RMK A01 T00060006  RH  100%=      5-min Rain = 0.01
KFL1 082340Z 28007KT 01/01 A2995 RMK A01 T00070007  RH  100%=      5-min Rain = 0
KFL1 082341Z 28008KT 01/01 A2995 RMK A01 T00070007  RH  100%=      5-min Rain = 0
KFL1 082342Z 29009KT 01/01 A2995 RMK A01 T00060006  RH  100%=      5-min Rain = 0
KFL1 082343Z 28008KT 01/01 A2994 RMK A01 T00060006  RH  100%=      5-min Rain = 0
KFL1 082344Z 28007KT 01/01 A2994 RMK A01 T00060006  RH  100%=      5-min Rain = 0
KFL1 082345Z 29008KT 01/01 A2994 RMK A01 T00080008  RH  100%=      5-min Rain = 0
KFL1 082346Z 29007KT 01/01 A2994 RMK A01 T00060006  RH  100%=      5-min Rain = 0
KFL1 082347Z 29009KT 01/01 A2994 RMK A01 T00080008  RH  100%=      5-min Rain = 0
KFL1 082348Z 29008KT 01/01 A2994 RMK A01 T00090009  RH  100%=      5-min Rain = 0
KFL1 082349Z 29008KT 01/01 A2994 RMK A01 T00070007  RH  100%=      5-min Rain = 0
KFL1 082350Z 29008KT 01/01 A2994 RMK A01 T00070007  RH  100%=      5-min Rain = 0
KFL1 082351Z 29009KT 01/01 A2994 RMK A01 T00080008  RH  100%=      5-min Rain = 0
KFL1 082352Z 29010KT 01/01 A2994 RMK A01 T00080008  RH  100%=      5-min Rain = 0
KFL1 082353Z 29007KT 01/01 A2994 RMK A01 T00070007  RH  100%=      5-min Rain = 0
KFL1 082354Z 29009KT 01/01 A2994 RMK A01 T00080008  RH  100%=      5-min Rain = 0
KFL1 082355Z 29009KT 01/01 A2994 RMK A01 T00070008  RH  100%=      5-min Rain = 0
KFL1 082356Z 29008KT 01/01 A2994 RMK A01 T00070007  RH  100%=      5-min Rain = 0
KFL1 082357Z 28007KT 01/01 A2994 RMK A01 T00080008  RH  100%=      5-min Rain = 0
KFL1 082358Z 28007KT 01/01 A2994 RMK A01 T00070007  RH  100%=      5-min Rain = 0
KFL1 082359Z 28007KT 01/01 A2994 RMK A01 T00070007  RH  100%=      5-min Rain = 0
KFL1 090000Z 28007KT 01/01 A2994 RMK A01 T00070007  RH  100%=      5-min Rain = 0
KFL1 090001Z 28006KT 01/01 A2994 RMK A01 T00080008  RH  100%=      5-min Rain = 0
KFL1 090002Z 28007KT 01/01 A2994 RMK A01 T00080008  RH  100%=      5-min Rain = 0
KFL1 090003Z 28008KT 01/01 A2994 RMK A01 T00080008  RH  100%=      5-min Rain = 0
KFL1 090004Z 29007KT 01/01 A2994 RMK A01 T00080008  RH  100%=      5-min Rain = 0
KFL1 090005Z 29006KT 01/01 A2994 RMK A01 T00080008  RH  100%=      5-min Rain = 0
KFL1 090006Z 29007KT 01/01 A2994 RMK A01 T00070007  RH  100%=      5-min Rain = 0
KFL1 090007Z 28007KT 01/01 A2994 RMK A01 T00080008  RH  100%=      5-min Rain = 0
KFL1 090008Z 29007KT 01/01 A2994 RMK A01 T00080008  RH  100%=      5-min Rain = 0
KFL1 090009Z 28006KT 01/01 A2994 RMK A01 T00080008  RH  100%=      5-min Rain = 0
KFL1 090010Z 29006KT 01/01 A2994 RMK A01 T00080008  RH  100%=      5-min Rain = 0
KFL1 090011Z 28006KT 01/01 A2994 RMK A01 T00080008  RH  100%=      5-min Rain = 0
KFL1 090012Z 28005KT 01/01 A2994 RMK A01 T00080008  RH  100%=      5-min Rain = 0
KFL1 090013Z 28005KT 01/01 A2994 RMK A01 T00080008  RH  100%=      5-min Rain = 0
KFL1 090014Z 28006KT 01/01 A2994 RMK A01 T00080008  RH  100%=      5-min Rain = 0
KFL1 090015Z 28006KT 01/01 A2994 RMK A01 T00070007  RH  100%=      5-min Rain = 0
KFL1 090016Z 28005KT 01/01 A2994 RMK A01 T00080008  RH  100%=      5-min Rain = 0
KFL1 090017Z 28006KT 01/01 A2994 RMK A01 T00090009  RH  100%=      5-min Rain = 0
KFL1 090018Z 28005KT 01/01 A2994 RMK A01 T00070007  RH  100%=      5-min Rain = 0
KFL1 090019Z 28005KT 01/01 A2994 RMK A01 T00070007  RH  100%=      5-min Rain = 0
KFL1 090020Z 27004KT 01/01 A2994 RMK A01 T00080008  RH  100%=      5-min Rain = 0
KFL1 090021Z 28005KT 01/01 A2994 RMK A01 T00070007  RH  100%=      5-min Rain = 0
KFL1 090022Z 28005KT 01/01 A2994 RMK A01 T00080008  RH  100%=      5-min Rain = 0
KFL1 090023Z 28005KT 01/01 A2994 RMK A01 T00080008  RH  100%=      5-min Rain = 0
KFL1 090024Z 28005KT 01/01 A2994 RMK A01 T00080008  RH  100%=      5-min Rain = 0
KFL1 090025Z 28005KT 01/01 A2994 RMK A01 T00080008  RH  100%=      5-min Rain = 0
KFL1 090026Z 28005KT 01/01 A2994 RMK A01 T00070007  RH  100%=      5-min Rain = 0
KFL1 090027Z 28005KT 01/01 A2994 RMK A01 T00080008  RH  100%=      5-min Rain = 0
KFL1 090028Z 29005KT 01/01 A2994 RMK A01 T00080008  RH  100%=      5-min Rain = 0
KFL1 090029Z 29005KT 01/01 A2994 RMK A01 T00080008  RH  100%=      5-min Rain = 0
KFL1 090030Z 29005KT 01/01 A2994 RMK A01 T00080008  RH  100%=      5-min Rain = 0
KFL1 090031Z 29005KT 01/01 A2994 RMK A01 T00090009  RH  100%=      5-min Rain = 0
KFL1 090032Z 29005KT 01/01 A2994 RMK A01 T00080008  RH  100%=      5-min Rain = 0
KFL1 090033Z 28005KT 01/01 A2994 RMK A01 T00070007  RH  100%=      5-min Rain = 0
KFL1 090034Z 28005KT 01/01 A2994 RMK A01 T00080008  RH  100%=      5-min Rain = 0
KFL1 090035Z 28005KT 01/01 A2994 RMK A01 T00080008  RH  100%=      5-min Rain = 0
KFL1 090036Z 28005KT 01/01 A2994 RMK A01 T00090009  RH  100%=      5-min Rain = 0
KFL1 090037Z 28005KT 01/01 A2994 RMK A01 T00080008  RH  100%=      5-min Rain = 0
KFL1 090038Z 28005KT 01/01 A2994 RMK A01 T00080008  RH  100%=      5-min Rain = 0
KFL1 090039Z 28006KT 01/01 A2994 RMK A01 T00070007  RH  100%=      5-min Rain = 0
KFL1 090040Z 29006KT 01/01 A2994 RMK A01 T00070007  RH  100%=      5-min Rain = 0
KFL1 090041Z 29006KT 01/01 A2994 RMK A01 T00080008  RH  100%=      5-min Rain = 0
KFL1 090042Z 29006KT 01/01 A2994 RMK A01 T00080008  RH  100%=      5-min Rain = 0
KFL1 090043Z 29005KT 01/01 A2994 RMK A01 T00080008  RH  100%=      5-min Rain = 0
KFL1 090044Z 29005KT 01/01 A2994 RMK A01 T00070007  RH  100%=      5-min Rain = 0
KFL1 090045Z 29005KT 01/01 A2994 RMK A01 T00080008  RH  100%=      5-min Rain = 0
KFL1 090046Z 29005KT 01/01 A2994 RMK A01 T00090009  RH  100%=      5-min Rain = 0
KFL1 090047Z 29005KT 01/01 A2993 RMK A01 T00080008  RH  100%=      5-min Rain = 0
KFL1 090048Z 28005KT 01/01 A2993 RMK A01 T00070007  RH  100%=      5-min Rain = 0
KFL1 090049Z 28004KT 01/01 A2993 RMK A01 T00080008  RH  100%=      5-min Rain = 0
KFL1 090050Z 28004KT 01/01 A2993 RMK A01 T00070007  RH  100%=      5-min Rain = 0
KFL1 090051Z 28004KT 01/01 A2993 RMK A01 T00070007  RH  100%=      5-min Rain = 0
KFL1 090052Z 28004KT 01/01 A2993 RMK A01 T00070007  RH  100%=      5-min Rain = 0
KFL1 090053Z 27004KT 01/01 A2993 RMK A01 T00070007  RH  100%=      5-min Rain = 0
KFL1 090054Z 27004KT 01/01 A2993 RMK A01 T00070007  RH  100%=      5-min Rain = 0
KFL1 090055Z 27003KT 01/01 A2993 RMK A01 T00070007  RH  100%=      5-min Rain = 0
KFL1 090056Z 27004KT 01/01 A2993 RMK A01 T00070007  RH  100%=      5-min Rain = 0
KFL1 090057Z 27004KT 01/01 A2993 RMK A01 T00070007  RH  100%=      5-min Rain = 0.01
KFL1 090058Z 27004KT 01/01 A2993 RMK A01 T00070007  RH  100%=      5-min Rain = 0
KFL1 090059Z 27004KT 01/01 A2993 RMK A01 T00060006  RH  100%=      5-min Rain = 0
KFL1 090100Z 28004KT 01/01 A2993 RMK A01 T00070007  RH  100%=      5-min Rain = 0
KFL1 090101Z 28004KT 01/01 A2993 RMK A01 T00050005  RH  100%=      5-min Rain = 0
KFL1 090102Z 28004KT 01/01 A2993 RMK A01 T00060006  RH  100%=      5-min Rain = 0
KFL1 090103Z 28004KT 01/01 A2993 RMK A01 T00070007  RH  100%=      5-min Rain = 0
KFL1 090104Z 28004KT 01/01 A2993 RMK A01 T00060006  RH  100%=      5-min Rain = 0
KFL1 090105Z 28005KT 01/01 A2993 RMK A01 T00070007  RH  100%=      5-min Rain = 0
KFL1 090106Z 28005KT 01/01 A2993 RMK A01 T00060006  RH  100%=      5-min Rain = 0
KFL1 090107Z 28005KT 01/01 A2993 RMK A01 T00070007  RH  100%=      5-min Rain = 0
KFL1 090108Z 28006KT 01/01 A2993 RMK A01 T00070007  RH  100%=      5-min Rain = 0
KFL1 090109Z 29005KT 01/01 A2993 RMK A01 T00070007  RH  100%=      5-min Rain = 0
KFL1 090110Z 29005KT 01/01 A2993 RMK A01 T00080008  RH  100%=      5-min Rain = 0
KFL1 090111Z 29005KT 01/01 A2993 RMK A01 T00080008  RH  100%=      5-min Rain = 0
KFL1 090112Z 29005KT 01/01 A2993 RMK A01 T00070007  RH  100%=      5-min Rain = 0
KFL1 090113Z 29006KT 01/01 A2993 RMK A01 T00080008  RH  100%=      5-min Rain = 0
KFL1 090114Z 29006KT 01/01 A2993 RMK A01 T00070007  RH  100%=      5-min Rain = 0
KFL1 090115Z 29006KT 01/01 A2993 RMK A01 T00070007  RH  100%=      5-min Rain = 0
KFL1 090116Z 28006KT 01/01 A2993 RMK A01 T00070007  RH  100%=      5-min Rain = 0
KFL1 090117Z 28006KT 01/01 A2993 RMK A01 T00090009  RH  100%=      5-min Rain = 0
KFL1 090118Z 28006KT 01/01 A2993 RMK A01 T00080008  RH  100%=      5-min Rain = 0
KFL1 090119Z 28006KT 01/01 A2993 RMK A01 T00080008  RH  100%=      5-min Rain = 0
KFL1 090120Z 28006KT 01/01 A2993 RMK A01 T00100010  RH  100%=      5-min Rain = 0
KFL1 090121Z 28006KT 01/01 A2993 RMK A01 T00100010  RH  100%=      5-min Rain = 0
KFL1 090122Z 28006KT 01/01 A2993 RMK A01 T00090009  RH  100%=      5-min Rain = 0
KFL1 090123Z 27006KT 01/01 A2993 RMK A01 T00090009  RH  100%=      5-min Rain = 0
KFL1 090124Z 27007KT 01/01 A2993 RMK A01 T00090009  RH  100%=      5-min Rain = 0
KFL1 090125Z 27006KT 01/01 A2993 RMK A01 T00100010  RH  100%=      5-min Rain = 0
KFL1 090126Z 27007KT 01/01 A2994 RMK A01 T00090009  RH  100%=      5-min Rain = 0
KFL1 090127Z 28007KT 01/01 A2994 RMK A01 T00100010  RH  100%=      5-min Rain = 0
KFL1 090128Z 27013G18KT 01/01 A2994 RMK A01 T00090009  RH  100%=      5-min Rain = 0
KFL1 090129Z 26018KT 01/01 A2994 RMK A01 T00090009  RH  100%=      5-min Rain = 0
KFL1 090130Z 26019KT 01/01 A2994 RMK A01 T00100010  RH  100%=      5-min Rain = 0
KFL1 090131Z 27016KT 01/01 A2994 RMK A01 T00090009  RH  100%=      5-min Rain = 0
KFL1 090132Z 26018G23KT 01/01 A2994 RMK A01 T00080008  RH  100%=      5-min Rain = 0
KFL1 090133Z 26017G22KT 01/01 A2994 RMK A01 T00070007  RH  100%=      5-min Rain = 0
KFL1 090134Z 28017KT 01/01 A2994 RMK A01 T00070007  RH  100%=      5-min Rain = 0
KFL1 090135Z 27018G24KT 01/01 A2994 RMK A01 T00060006  RH  100%=      5-min Rain = 0
KFL1 090136Z 27017KT 01/01 A2994 RMK A01 T00070007  RH  100%=      5-min Rain = 0
KFL1 090137Z 28016G21KT 01/01 A2995 RMK A01 T00050005  RH  100%=      5-min Rain = 0
KFL1 090138Z 29018KT 01/01 A2995 RMK A01 T00050005  RH  100%=      5-min Rain = 0
KFL1 090139Z 29018KT 01/01 A2995 RMK A01 T00070007  RH  100%=      5-min Rain = 0
KFL1 090140Z 29014KT 01/01 A2995 RMK A01 T00050005  RH  100%=      5-min Rain = 0
KFL1 090141Z 29015KT 01/01 A2995 RMK A01 T00050005  RH  100%=      5-min Rain = 0
KFL1 090142Z 29014KT 01/01 A2995 RMK A01 T00050005  RH  100%=      5-min Rain = 0
KFL1 090143Z 29015KT 01/01 A2995 RMK A01 T00050005  RH  100%=      5-min Rain = 0
KFL1 090144Z 29013KT 00/00 A2995 RMK A01 T00040004  RH  100%=      5-min Rain = 0
KFL1 090145Z 30015KT 00/00 A2995 RMK A01 T00040004  RH  100%=      5-min Rain = 0
KFL1 090146Z 29014KT 00/00 A2995 RMK A01 T00040004  RH  100%=      5-min Rain = 0
KFL1 090147Z 29012KT 00/00 A2994 RMK A01 T00040004  RH  100%=      5-min Rain = 0
KFL1 090148Z 28013KT 00/00 A2994 RMK A01 T00040004  RH  100%=      5-min Rain = 0
KFL1 090149Z 29011KT 00/00 A2994 RMK A01 T00030003  RH  100%=      5-min Rain = 0
KFL1 090150Z 29011KT 00/00 A2994 RMK A01 T00030003  RH  100%=      5-min Rain = 0
KFL1 090151Z 29013KT 00/00 A2994 RMK A01 T00030003  RH  100%=      5-min Rain = 0
KFL1 090152Z 29011KT 00/00 A2994 RMK A01 T00030003  RH  100%=      5-min Rain = 0
KFL1 090153Z 29009KT 00/00 A2994 RMK A01 T00040004  RH  100%=      5-min Rain = 0
KFL1 090154Z 29010KT 00/00 A2993 RMK A01 T00030003  RH  100%=      5-min Rain = 0
KFL1 090155Z 29010KT 00/00 A2993 RMK A01 T00020002  RH  100%=      5-min Rain = 0
KFL1 090156Z 29008KT 00/00 A2993 RMK A01 T00040004  RH  100%=      5-min Rain = 0
KFL1 090157Z 29008KT 00/00 A2993 RMK A01 T00030003  RH  100%=      5-min Rain = 0
KFL1 090158Z 29010KT 00/00 A2993 RMK A01 T00040004  RH  100%=      5-min Rain = 0
KFL1 090159Z 28008KT 00/00 A2993 RMK A01 T00020002  RH  100%=      5-min Rain = 0
KFL1 090200Z 28009KT 00/00 A2993 RMK A01 T00040004  RH  100%=      5-min Rain = 0
KFL1 090201Z 28008KT 00/00 A2993 RMK A01 T00030003  RH  100%=      5-min Rain = 0
KFL1 090202Z 29009KT 00/00 A2993 RMK A01 T00030003  RH  100%=      5-min Rain = 0
KFL1 090203Z 29009KT 00/00 A2993 RMK A01 T00020002  RH  100%=      5-min Rain = 0
KFL1 090204Z 30009KT 00/00 A2993 RMK A01 T00030003  RH  100%=      5-min Rain = 0
KFL1 090205Z 29010KT 00/00 A2993 RMK A01 T00030003  RH  100%=      5-min Rain = 0
KFL1 090206Z 30010KT 00/00 A2993 RMK A01 T00030003  RH  100%=      5-min Rain = 0
KFL1 090207Z 30009KT 00/00 A2993 RMK A01 T00040004  RH  100%=      5-min Rain = 0
KFL1 090208Z 30009KT 00/00 A2993 RMK A01 T00040004  RH  100%=      5-min Rain = 0
KFL1 090209Z 30009KT 00/00 A2993 RMK A01 T00030003  RH  100%=      5-min Rain = 0
KFL1 090210Z 30009KT 00/00 A2993 RMK A01 T00040004  RH  100%=      5-min Rain = 0
KFL1 090211Z 30009KT 00/00 A2993 RMK A01 T00030003  RH  100%=      5-min Rain = 0
KFL1 090212Z 29008KT 00/00 A2993 RMK A01 T00040004  RH  100%=      5-min Rain = 0
KFL1 090213Z 30007KT 00/00 A2993 RMK A01 T00040004  RH  100%=      5-min Rain = 0
KFL1 090214Z 30007KT 00/00 A2993 RMK A01 T00030003  RH  100%=      5-min Rain = 0
KFL1 090215Z 29008KT 00/00 A2993 RMK A01 T00030003  RH  100%=      5-min Rain = 0
KFL1 090216Z 30007KT 00/00 A2994 RMK A01 T00040004  RH  100%=      5-min Rain = 0
KFL1 090217Z 30010KT 01/01 A2994 RMK A01 T00050005  RH  100%=      5-min Rain = 0
KFL1 090218Z 30009KT 00/00 A2993 RMK A01 T00030003  RH  100%=      5-min Rain = 0
KFL1 090219Z 30007KT 00/00 A2993 RMK A01 T00040004  RH  100%=      5-min Rain = 0
KFL1 090220Z 30007KT 00/00 A2993 RMK A01 T00040004  RH  100%=      5-min Rain = 0
KFL1 090221Z 30007KT 00/00 A2993 RMK A01 T00030003  RH  100%=      5-min Rain = 0
KFL1 090222Z 30009KT 01/01 A2993 RMK A01 T00050005  RH  100%=      5-min Rain = 0
KFL1 090223Z 29007KT 00/00 A2993 RMK A01 T00040004  RH  100%=      5-min Rain = 0
KFL1 090224Z 29008KT 00/00 A2993 RMK A01 T00030003  RH  100%=      5-min Rain = 0
KFL1 090225Z 29008KT 00/00 A2993 RMK A01 T00030003  RH  100%=      5-min Rain = 0
KFL1 090226Z 29008KT 00/00 A2993 RMK A01 T00030003  RH  100%=      5-min Rain = 0
KFL1 090227Z 29009KT 00/00 A2993 RMK A01 T00040004  RH  100%=      5-min Rain = 0
KFL1 090228Z 29008KT 00/00 A2993 RMK A01 T00030003  RH  100%=      5-min Rain = 0
KFL1 090229Z 30008KT 00/00 A2993 RMK A01 T00040004  RH  100%=      5-min Rain = 0
KFL1 090230Z 30007KT 00/00 A2993 RMK A01 T00040004  RH  100%=      5-min Rain = 0
KFL1 090231Z 29008KT 00/00 A2993 RMK A01 T00030003  RH  100%=      5-min Rain = 0
KFL1 090232Z 29007KT 00/00 A2993 RMK A01 T00040004  RH  100%=      5-min Rain = 0
KFL1 090233Z 29007KT 00/00 A2993 RMK A01 T00040004  RH  100%=      5-min Rain = 0
KFL1 090234Z 30007KT 00/00 A2993 RMK A01 T00040004  RH  100%=      5-min Rain = 0
KFL1 090235Z 30008KT 00/00 A2993 RMK A01 T00030003  RH  100%=      5-min Rain = 0
KFL1 090236Z 30007KT 00/00 A2993 RMK A01 T00040004  RH  100%=      5-min Rain = 0
KFL1 090237Z 30009KT 01/01 A2992 RMK A01 T00050005  RH  100%=      5-min Rain = 0
KFL1 090238Z 30008KT 00/00 A2992 RMK A01 T00040004  RH  100%=      5-min Rain = 0
KFL1 090239Z 30007KT 00/00 A2992 RMK A01 T00040004  RH  100%=      5-min Rain = 0
KFL1 090240Z 30007KT 00/00 A2992 RMK A01 T00040004  RH  100%=      5-min Rain = 0
KFL1 090241Z 30008KT 00/00 A2992 RMK A01 T00030003  RH  100%=      5-min Rain = 0
KFL1 090242Z 30006KT 00/00 A2992 RMK A01 T00040004  RH  100%=      5-min Rain = 0
KFL1 090243Z 30006KT 00/00 A2992 RMK A01 T00040004  RH  100%=      5-min Rain = 0
KFL1 090244Z 30007KT 00/00 A2992 RMK A01 T00040004  RH  100%=      5-min Rain = 0
KFL1 090245Z 30007KT 00/00 A2992 RMK A01 T00040004  RH  100%=      5-min Rain = 0
KFL1 090246Z 31007KT 00/00 A2992 RMK A01 T00030003  RH  100%=      5-min Rain = 0
KFL1 090247Z 30007KT 00/00 A2992 RMK A01 T00040004  RH  100%=      5-min Rain = 0
KFL1 090248Z 30008KT 00/00 A2992 RMK A01 T00040004  RH  100%=      5-min Rain = 0
KFL1 090249Z 31008KT 00/00 A2992 RMK A01 T00040004  RH  100%=      5-min Rain = 0
KFL1 090250Z 30008KT 00/00 A2992 RMK A01 T00040004  RH  100%=      5-min Rain = 0
KFL1 090251Z 30006KT 00/00 A2992 RMK A01 T00040004  RH  100%=      5-min Rain = 0
KFL1 090252Z 31007KT 00/00 A2992 RMK A01 T00040004  RH  100%=      5-min Rain = 0
KFL1 090253Z 31008KT 00/00 A2992 RMK A01 T00040004  RH  100%=      5-min Rain = 0
KFL1 090254Z 30008KT 00/00 A2992 RMK A01 T00040004  RH  100%=      5-min Rain = 0
KFL1 090255Z 30008KT 00/00 A2992 RMK A01 T00040004  RH  100%=      5-min Rain = 0
KFL1 090256Z 30008KT 00/00 A2992 RMK A01 T00040004  RH  100%=      5-min Rain = 0
KFL1 090257Z 30008KT 00/00 A2992 RMK A01 T00040004  RH  100%=      5-min Rain = 0
KFL1 090258Z 30006KT 00/00 A2992 RMK A01 T00040004  RH  100%=      5-min Rain = 0
KFL1 090259Z 30007KT 01/01 A2992 RMK A01 T00050005  RH  100%=      5-min Rain = 0
KFL1 090300Z 30006KT 00/00 A2992 RMK A01 T00040004  RH  100%=      5-min Rain = 0
KFL1 090301Z 30006KT 00/00 A2992 RMK A01 T00040004  RH  100%=      5-min Rain = 0
KFL1 090302Z 30005KT 01/01 A2992 RMK A01 T00050005  RH  100%=      5-min Rain = 0
KFL1 090303Z 30006KT 00/00 A2992 RMK A01 T00040004  RH  100%=      5-min Rain = 0
KFL1 090304Z 29008KT 00/00 A2992 RMK A01 T00040004  RH  100%=      5-min Rain = 0
KFL1 090305Z 28007KT 00/00 A2992 RMK A01 T00030003  RH  100%=      5-min Rain = 0
KFL1 090306Z 28007KT 00/00 A2992 RMK A01 T00030003  RH  100%=      5-min Rain = 0
KFL1 090307Z 28007KT 00/00 A2991 RMK A01 T00040004  RH  100%=      5-min Rain = 0
KFL1 090308Z 27006KT 00/00 A2991 RMK A01 T00030003  RH  100%=      5-min Rain = 0
KFL1 090309Z 28008KT 00/00 A2991 RMK A01 T00030003  RH  100%=      5-min Rain = 0
KFL1 090310Z 28008KT 01/01 A2991 RMK A01 T00050005  RH  100%=      5-min Rain = 0
KFL1 090311Z 28007KT 00/00 A2991 RMK A01 T00030003  RH  100%=      5-min Rain = 0
KFL1 090312Z 28007KT 00/00 A2991 RMK A01 T00030003  RH  100%=      5-min Rain = 0
KFL1 090313Z 28007KT 00/00 A2991 RMK A01 T00040004  RH  100%=      5-min Rain = 0
KFL1 090314Z 28006KT 00/00 A2991 RMK A01 T00040004  RH  100%=      5-min Rain = 0
KFL1 090315Z 28007KT 00/00 A2991 RMK A01 T00040004  RH  100%=      5-min Rain = 0
KFL1 090316Z 29007KT 00/00 A2991 RMK A01 T00040004  RH  100%=      5-min Rain = 0
KFL1 090317Z 29008KT 01/01 A2991 RMK A01 T00050005  RH  100%=      5-min Rain = 0
KFL1 090318Z 29007KT 01/01 A2991 RMK A01 T00050005  RH  100%=      5-min Rain = 0
KFL1 090319Z 29007KT 01/01 A2991 RMK A01 T00050005  RH  100%=      5-min Rain = 0
KFL1 090320Z 29006KT 01/01 A2991 RMK A01 T00050005  RH  100%=      5-min Rain = 0
KFL1 090321Z 28007KT 01/01 A2991 RMK A01 T00050005  RH  100%=      5-min Rain = 0
KFL1 090322Z 28007KT 01/01 A2991 RMK A01 T00050005  RH  100%=      5-min Rain = 0
KFL1 090323Z 28008KT 00/00 A2991 RMK A01 T00040004  RH  100%=      5-min Rain = 0
KFL1 090324Z 27007KT 00/00 A2991 RMK A01 T00040004  RH  100%=      5-min Rain = 0
KFL1 090325Z 28007KT 00/00 A2991 RMK A01 T00040004  RH  100%=      5-min Rain = 0
KFL1 090326Z 29007KT 01/01 A2991 RMK A01 T00050005  RH  100%=      5-min Rain = 0
KFL1 090327Z 29007KT 01/01 A2991 RMK A01 T00050005  RH  100%=      5-min Rain = 0
KFL1 090328Z 29007KT 01/01 A2991 RMK A01 T00050005  RH  100%=      5-min Rain = 0
KFL1 090329Z 29008KT 01/01 A2991 RMK A01 T00050005  RH  100%=      5-min Rain = 0
KFL1 090330Z 29009KT 01/01 A2991 RMK A01 T00060006  RH  100%=      5-min Rain = 0
KFL1 090331Z 28013KT 01/01 A2991 RMK A01 T00050005  RH  100%=      5-min Rain = 0
KFL1 090332Z 28015KT 01/01 A2991 RMK A01 T00050005  RH  100%=      5-min Rain = 0
KFL1 090333Z 28013KT 01/01 A2991 RMK A01 T00050005  RH  100%=      5-min Rain = 0
KFL1 090334Z 28013KT 01/01 A2992 RMK A01 T00050005  RH  100%=      5-min Rain = 0
KFL1 090335Z 29013G18KT 01/01 A2992 RMK A01 T00060006  RH  100%=      5-min Rain = 0
KFL1 090336Z 28017KT 01/01 A2992 RMK A01 T00050005  RH  100%=      5-min Rain = 0
KFL1 090337Z 27017KT 01/01 A2992 RMK A01 T00050005  RH  100%=      5-min Rain = 0
KFL1 090338Z 27014KT 01/01 A2992 RMK A01 T00060006  RH  100%=      5-min Rain = 0
KFL1 090339Z 27012KT 01/01 A2992 RMK A01 T00050005  RH  100%=      5-min Rain = 0
KFL1 090340Z 27011KT 01/01 A2991 RMK A01 T00050005  RH  100%=      5-min Rain = 0
KFL1 090341Z 26011KT 00/00 A2991 RMK A01 T00040004  RH  100%=      5-min Rain = 0
KFL1 090342Z 26009KT 01/01 A2991 RMK A01 T00050005  RH  100%=      5-min Rain = 0
KFL1 090343Z 26008KT 00/00 A2991 RMK A01 T00040004  RH  100%=      5-min Rain = 0
KFL1 090344Z 26010KT 00/00 A2991 RMK A01 T00040004  RH  100%=      5-min Rain = 0
KFL1 090345Z 25010KT 00/00 A2991 RMK A01 T00040004  RH  100%=      5-min Rain = 0
KFL1 090346Z 27013KT 01/01 A2991 RMK A01 T00050005  RH  100%=      5-min Rain = 0
KFL1 090347Z 27012KT 00/00 A2991 RMK A01 T00040004  RH  100%=      5-min Rain = 0
KFL1 090348Z 27011KT 01/01 A2991 RMK A01 T00050005  RH  100%=      5-min Rain = 0
KFL1 090349Z 27010KT 01/01 A2991 RMK A01 T00050005  RH  100%=      5-min Rain = 0
KFL1 090350Z 28011KT 00/00 A2991 RMK A01 T00040004  RH  100%=      5-min Rain = 0
KFL1 090351Z 28009KT 01/01 A2991 RMK A01 T00050005  RH  100%=      5-min Rain = 0
KFL1 090352Z 29013KT 00/00 A2991 RMK A01 T00040004  RH  100%=      5-min Rain = 0
KFL1 090353Z 29011KT 00/00 A2991 RMK A01 T00040004  RH  100%=      5-min Rain = 0
KFL1 090354Z 30011G17KT 01/01 A2991 RMK A01 T00050005  RH  100%=      5-min Rain = 0
KFL1 090355Z 29011G17KT 00/00 A2991 RMK A01 T00040004  RH  100%=      5-min Rain = 0
KFL1 090356Z 29016G21KT 01/01 A2991 RMK A01 T00050005  RH  100%=      5-min Rain = 0
KFL1 090357Z 30015KT 00/00 A2991 RMK A01 T00040004  RH  100%=      5-min Rain = 0
KFL1 090358Z 30013KT 00/00 A2991 RMK A01 T00030003  RH  100%=      5-min Rain = 0
KFL1 090359Z 29011KT 00/00 A2991 RMK A01 T00040004  RH  100%=      5-min Rain = 0
KFL1 090400Z 30011KT 00/00 A2991 RMK A01 T00040004  RH  100%=      5-min Rain = 0
KFL1 090401Z 30017KT 00/00 A2991 RMK A01 T00030003  RH  100%=      5-min Rain = 0
KFL1 090402Z 30015KT 00/00 A2991 RMK A01 T00030003  RH  100%=      5-min Rain = 0
KFL1 090403Z 30014KT 00/00 A2991 RMK A01 T00040004  RH  100%=      5-min Rain = 0
KFL1 090404Z 30015KT 00/00 A2991 RMK A01 T00030003  RH  100%=      5-min Rain = 0
KFL1 090405Z 30016KT 00/00 A2991 RMK A01 T00030003  RH  100%=      5-min Rain = 0
KFL1 090406Z 30013KT 00/00 A2991 RMK A01 T00040004  RH  100%=      5-min Rain = 0
KFL1 090407Z 30016KT 00/00 A2991 RMK A01 T00030003  RH  100%=      5-min Rain = 0
KFL1 090408Z 30015KT 00/00 A2991 RMK A01 T00030003  RH  100%=      5-min Rain = 0
KFL1 090409Z 30013KT 00/00 A2991 RMK A01 T00040004  RH  100%=      5-min Rain = 0
KFL1 090410Z 30015KT 00/00 A2991 RMK A01 T00030003  RH  100%=      5-min Rain = 0
KFL1 090411Z 30013KT 00/00 A2991 RMK A01 T00030003  RH  100%=      5-min Rain = 0
KFL1 090412Z 30016KT 00/00 A2991 RMK A01 T00020002  RH  100%=      5-min Rain = 0
KFL1 090413Z 30013KT 00/00 A2991 RMK A01 T00030003  RH  100%=      5-min Rain = 0
KFL1 090414Z 30014G19KT 00/00 A2991 RMK A01 T00020002  RH  100%=      5-min Rain = 0
KFL1 090415Z 30014KT 00/00 A2991 RMK A01 T00030003  RH  100%=      5-min Rain = 0
KFL1 090416Z 30012KT 00/00 A2991 RMK A01 T00030003  RH  100%=      5-min Rain = 0
KFL1 090417Z 29012KT 00/00 A2991 RMK A01 T00030003  RH  100%=      5-min Rain = 0
KFL1 090418Z 29012KT 00/00 A2991 RMK A01 T00040004  RH  100%=      5-min Rain = 0
KFL1 090419Z 29012KT 00/00 A2991 RMK A01 T00030003  RH  100%=      5-min Rain = 0
KFL1 090420Z 29012KT 00/00 A2992 RMK A01 T00020002  RH  100%=      5-min Rain = 0
KFL1 090421Z 29011KT 00/00 A2992 RMK A01 T00030003  RH  100%=      5-min Rain = 0
KFL1 090422Z 28010KT 00/00 A2991 RMK A01 T00020002  RH  100%=      5-min Rain = 0
KFL1 090423Z 28009KT 00/00 A2991 RMK A01 T00030003  RH  100%=      5-min Rain = 0
KFL1 090424Z 28008KT 00/00 A2991 RMK A01 T00030003  RH  100%=      5-min Rain = 0
KFL1 090425Z 28010KT 00/00 A2991 RMK A01 T00030003  RH  100%=      5-min Rain = 0
KFL1 090426Z 28009KT 00/00 A2991 RMK A01 T00030003  RH  100%=      5-min Rain = 0
KFL1 090427Z 28009KT 00/00 A2991 RMK A01 T00030003  RH  100%=      5-min Rain = 0.01
KFL1 090428Z 29010KT 00/00 A2991 RMK A01 T00010001  RH  100%=      5-min Rain = 0
KFL1 090429Z 28008KT 00/00 A2991 RMK A01 T00010001  RH  100%=      5-min Rain = 0
KFL1 090430Z 28006KT 00/00 A2991 RMK A01 T00020002  RH  100%=      5-min Rain = 0
KFL1 090431Z 28008KT 00/00 A2991 RMK A01 T00020002  RH  100%=      5-min Rain = 0
KFL1 090432Z 29008KT 00/00 A2991 RMK A01 T00010001  RH  100%=      5-min Rain = 0
KFL1 090433Z 29009KT 00/00 A2991 RMK A01 T00000000  RH  100%=      5-min Rain = 0
KFL1 090434Z 29010KT 00/00 A2991 RMK A01 T00000000  RH  100%=      5-min Rain = 0
KFL1 090435Z 28007KT 00/00 A2991 RMK A01 T00-000-0  RH  100%=      5-min Rain = 0
KFL1 090436Z 28009KT 00/00 A2991 RMK A01 T00-000-0  RH  100%=      5-min Rain = 0
KFL1 090437Z 27007KT 00/00 A2991 RMK A01 T00-000-0  RH  100%=      5-min Rain = 0
KFL1 090438Z 27007KT 00/00 A2991 RMK A01 T00-000-0  RH  100%=      5-min Rain = 0
KFL1 090439Z 28007KT 00/00 A2991 RMK A01 T00-000-0  RH  100%=      5-min Rain = 0
KFL1 090440Z 28008KT 00/00 A2991 RMK A01 T00000000  RH  100%=      5-min Rain = 0
KFL1 090441Z 28008KT M00/M00 A2991 RMK A01 T10011001  RH  100%=      5-min Rain = 0
KFL1 090442Z 28009KT M00/M00 A2991 RMK A01 T10021002  RH  100%=      5-min Rain = 0
KFL1 090443Z 28008KT M00/M00 A2991 RMK A01 T10011001  RH  100%=      5-min Rain = 0
KFL1 090444Z 29009KT 00/00 A2991 RMK A01 T00-000-0  RH  100%=      5-min Rain = 0
KFL1 090445Z 29007KT M00/M00 A2991 RMK A01 T10011001  RH  100%=      5-min Rain = 0
KFL1 090446Z 28008KT M00/M00 A2991 RMK A01 T10011001  RH  100%=      5-min Rain = 0
KFL1 090447Z 28008KT M00/M00 A2991 RMK A01 T10011001  RH  100%=      5-min Rain = 0
KFL1 090448Z 28009KT M00/M00 A2991 RMK A01 T10011001  RH  100%=      5-min Rain = 0
KFL1 090449Z 27008KT 00/00 A2991 RMK A01 T00-000-0  RH  100%=      5-min Rain = 0
KFL1 090450Z 28008KT M00/M00 A2991 RMK A01 T10011001  RH  100%=      5-min Rain = 0
KFL1 090451Z 28009KT 00/00 A2991 RMK A01 T00010001  RH  100%=      5-min Rain = 0
KFL1 090452Z 28010KT M00/M00 A2992 RMK A01 T10011001  RH  100%=      5-min Rain = 0
KFL1 090453Z 28009KT 00/00 A2991 RMK A01 T00000000  RH  100%=      5-min Rain = 0
KFL1 090454Z 28010KT 00/00 A2992 RMK A01 T00000000  RH  100%=      5-min Rain = 0
KFL1 090455Z 29010KT 00/00 A2992 RMK A01 T00020002  RH  100%=      5-min Rain = 0
KFL1 090456Z 29009KT 00/00 A2992 RMK A01 T00-000-0  RH  100%=      5-min Rain = 0
KFL1 090457Z 29011KT 00/00 A2992 RMK A01 T00010001  RH  100%=      5-min Rain = 0
KFL1 090458Z 29010KT 00/00 A2992 RMK A01 T00010001  RH  100%=      5-min Rain = 0
KFL1 090459Z 30010KT 00/00 A2992 RMK A01 T00010001  RH  100%=      5-min Rain = 0
KFL1 090500Z 29010KT 00/00 A2992 RMK A01 T00000000  RH  100%=      5-min Rain = 0
KFL1 090501Z 29010KT 00/00 A2992 RMK A01 T00010001  RH  100%=      5-min Rain = 0
KFL1 090502Z 29008KT 00/00 A2992 RMK A01 T00020002  RH  100%=      5-min Rain = 0
KFL1 090503Z 29009KT 00/00 A2992 RMK A01 T00010001  RH  100%=      5-min Rain = 0
KFL1 090504Z 29010KT 00/00 A2992 RMK A01 T00000000  RH  100%=      5-min Rain = 0
KFL1 090505Z 28009KT 00/00 A2992 RMK A01 T00020002  RH  100%=      5-min Rain = 0
KFL1 090506Z 29010KT 00/00 A2992 RMK A01 T00010001  RH  100%=      5-min Rain = 0
KFL1 090507Z 28009KT 00/00 A2992 RMK A01 T00020002  RH  100%=      5-min Rain = 0
KFL1 090508Z 28010KT 00/00 A2992 RMK A01 T00010001  RH  100%=      5-min Rain = 0
KFL1 090509Z 28009KT 00/00 A2992 RMK A01 T00020002  RH  100%=      5-min Rain = 0
KFL1 090510Z 27010KT 00/00 A2992 RMK A01 T00020002  RH  100%=      5-min Rain = 0
KFL1 090511Z 27010KT 00/00 A2992 RMK A01 T00020002  RH  100%=      5-min Rain = 0
KFL1 090512Z 27008KT 00/00 A2992 RMK A01 T00010001  RH  100%=      5-min Rain = 0
KFL1 090513Z 28011KT 00/00 A2992 RMK A01 T00020002  RH  100%=      5-min Rain = 0
KFL1 090514Z 28009KT 00/00 A2992 RMK A01 T00010001  RH  100%=      5-min Rain = 0
KFL1 090515Z 28009KT 00/00 A2992 RMK A01 T00020002  RH  100%=      5-min Rain = 0
KFL1 090516Z 28009KT 00/00 A2992 RMK A01 T00020002  RH  100%=      5-min Rain = 0
KFL1 090517Z 28008KT 00/00 A2992 RMK A01 T00020002  RH  100%=      5-min Rain = 0
KFL1 090518Z 28008KT 00/00 A2992 RMK A01 T00020002  RH  100%=      5-min Rain = 0
KFL1 090519Z 27007KT 00/00 A2992 RMK A01 T00000000  RH  100%=      5-min Rain = 0
KFL1 090520Z 27008KT 00/00 A2992 RMK A01 T00010001  RH  100%=      5-min Rain = 0
KFL1 090521Z 27007KT 00/00 A2992 RMK A01 T00-000-0  RH  100%=      5-min Rain = 0
KFL1 090522Z 26009KT 00/00 A2992 RMK A01 T00010001  RH  100%=      5-min Rain = 0
KFL1 090523Z 26009KT 00/00 A2992 RMK A01 T00010001  RH  100%=      5-min Rain = 0
KFL1 090524Z 26008KT 00/00 A2992 RMK A01 T00010001  RH  100%=      5-min Rain = 0
KFL1 090525Z 26008KT 00/00 A2992 RMK A01 T00000000  RH  100%=      5-min Rain = 0
KFL1 090526Z 26009KT 00/00 A2992 RMK A01 T00-000-0  RH  100%=      5-min Rain = 0
KFL1 090527Z 25008KT M00/M00 A2992 RMK A01 T10011001  RH  100%=      5-min Rain = 0
KFL1 090528Z 26008KT M00/M00 A2992 RMK A01 T10011001  RH  100%=      5-min Rain = 0
KFL1 090529Z 26008KT M00/M00 A2992 RMK A01 T10021002  RH  100%=      5-min Rain = 0
KFL1 090530Z 26008KT M00/M00 A2991 RMK A01 T10021002  RH  100%=      5-min Rain = 0
KFL1 090531Z 26007KT M00/M00 A2991 RMK A01 T10021002  RH  100%=      5-min Rain = 0
KFL1 090532Z 26008KT M00/M00 A2992 RMK A01 T10031003  RH  100%=      5-min Rain = 0
KFL1 090533Z 26006KT M00/M00 A2992 RMK A01 T10031003  RH  100%=      5-min Rain = 0
KFL1 090534Z 26007KT M00/M00 A2992 RMK A01 T10041004  RH  100%=      5-min Rain = 0
KFL1 090535Z 26008KT M00/M00 A2992 RMK A01 T10041004  RH  100%=      5-min Rain = 0
KFL1 090536Z 26007KT M01/M01 A2992 RMK A01 T10051005  RH  100%=      5-min Rain = 0
KFL1 090537Z 25007KT M01/M01 A2991 RMK A01 T10061006  RH  100%=      5-min Rain = 0
KFL1 090538Z 25007KT M01/M01 A2991 RMK A01 T10051005  RH  100%=      5-min Rain = 0
KFL1 090539Z 25006KT M01/M01 A2991 RMK A01 T10051005  RH  100%=      5-min Rain = 0
KFL1 090540Z 26006KT M01/M01 A2991 RMK A01 T10061006  RH  100%=      5-min Rain = 0
KFL1 090541Z 26007KT M01/M01 A2991 RMK A01 T10051005  RH  100%=      5-min Rain = 0
KFL1 090542Z 26006KT M01/M01 A2991 RMK A01 T10061006  RH  100%=      5-min Rain = 0
KFL1 090543Z 25006KT M01/M01 A2991 RMK A01 T10071007  RH  100%=      5-min Rain = 0
KFL1 090544Z 25006KT M01/M01 A2992 RMK A01 T10081008  RH  100%=      5-min Rain = 0
KFL1 090545Z 26005KT M01/M01 A2992 RMK A01 T10081008  RH  100%=      5-min Rain = 0
KFL1 090546Z 26006KT M01/M01 A2992 RMK A01 T10091009  RH  100%=      5-min Rain = 0
KFL1 090547Z 26006KT M01/M01 A2992 RMK A01 T10081008  RH  100%=      5-min Rain = 0
KFL1 090548Z 25005KT M01/M01 A2992 RMK A01 T10081008  RH  100%=      5-min Rain = 0
KFL1 090549Z 25006KT M01/M01 A2992 RMK A01 T10091009  RH  100%=      5-min Rain = 0
KFL1 090550Z 25006KT M01/M01 A2992 RMK A01 T10101010  RH  100%=      5-min Rain = 0
KFL1 090551Z 25006KT M01/M01 A2992 RMK A01 T10091009  RH  100%=      5-min Rain = 0
KFL1 090552Z 25006KT M01/M01 A2992 RMK A01 T10111011  RH  100%=      5-min Rain = 0
KFL1 090553Z 26006KT M01/M01 A2992 RMK A01 T10111011  RH  100%=      5-min Rain = 0
KFL1 090554Z 26006KT M01/M01 A2992 RMK A01 T10111011  RH  100%=      5-min Rain = 0
KFL1 090555Z 26007KT M01/M01 A2992 RMK A01 T10121012  RH  100%=      5-min Rain = 0
KFL1 090556Z 26006KT M01/M01 A2992 RMK A01 T10111011  RH  100%=      5-min Rain = 0
KFL1 090557Z 27006KT M01/M01 A2992 RMK A01 T10121012  RH  100%=      5-min Rain = 0
KFL1 090558Z 27006KT M01/M01 A2992 RMK A01 T10131013  RH  100%=      5-min Rain = 0
KFL1 090559Z 27006KT M01/M01 A2992 RMK A01 T10141014  RH  100%=      5-min Rain = 0

Page generated in 0.0801 seconds.